FW0860 Weather Reports


Display with metric or nautical units.
time (UTC)temp
F
wind
direction
speed
MPH
gust
MPH
rain 1hr
in
rain 24hr
in
rain mn
in
humidity
%
barometer
mb
20260906142332 86 282 0.0 1.0 0.00 0.00 0.00 44 1011.3
20260906142234 86 282 0.0 1.0 0.00 0.00 0.00 44 1011.3
20260906142144 86 282 0.0 1.0 0.00 0.00 0.00 44 1011.3
20260906142024 86 282 0.0 2.0 0.00 0.00 0.00 45 1011.4
20260906141934 86 282 0.0 2.0 0.00 0.00 0.00 45 1011.4
20260906141820 86 282 0.0 2.0 0.00 0.00 0.00 45 1011.3
20260906141723 85 282 0.0 2.0 0.00 0.00 0.00 45 1011.3
20260906141625 85 282 0.0 2.0 0.00 0.00 0.00 45 1011.3
20260906141555 85 282 0.0 2.0 0.00 0.00 0.00 45 1011.3
20260906141434 85 282 0.0 2.0 0.00 0.00 0.00 45 1011.3
20260906141343 85 282 0.0 2.0 0.00 0.00 0.00 45 1011.3
20260906141225 85 282 0.0 2.0 0.00 0.00 0.00 45 1011.3
20260906141137 85 321 0.0 2.0 0.00 0.00 0.00 45 1011.3
20260906141018 85 321 0.0 2.0 0.00 0.00 0.00 45 1011.3
20260906140946 85 322 0.0 2.0 0.00 0.00 0.00 45 1011.3
20260906140829 85 319 0.0 2.0 0.00 0.00 0.00 45 1011.3
20260906140729 85 319 0.0 2.0 0.00 0.00 0.00 45 1011.3
20260906140639 85 319 0.0 2.0 0.00 0.00 0.00 45 1011.2
20260906140521 85 319 0.0 2.0 0.00 0.00 0.00 45 1011.2
20260906140428 85 319 0.0 0.0 0.00 0.00 0.00 45 1011.2
20260906140336 85 305 0.0 0.0 0.00 0.00 0.00 46 1011.3
20260906140217 84 305 0.0 0.0 0.00 0.00 0.00 46 1011.2
20260906140119 84 305 0.0 0.0 0.00 0.00 0.00 46 1011.2
20260906140101 84 305 0.0 0.0 0.00 0.00 0.00 46 1011.2
20260906135958 84 305 0.0 2.0 0.00 0.00 0.00 46 1011.2
20260906135820 84 305 0.0 2.0 0.00 0.00 0.00 46 1011.1
20260906135726 84 305 0.0 3.0 0.00 0.00 0.00 46 1011.1
20260906135655 84 305 0.0 3.0 0.00 0.00 0.00 46 1011.1
20260906135517 84 305 0.0 3.0 0.00 0.00 0.00 46 1011.0
20260906135417 84 305 0.0 3.0 0.00 0.00 0.00 46 1011.1
20260906135325 84 305 0.0 3.0 0.00 0.00 0.00 46 1011.0
20260906135248 84 305 0.0 3.0 0.00 0.00 0.00 46 1011.0
20260906135136 84 305 0.0 3.0 0.00 0.00 0.00 46 1011.1
20260906135022 84 305 1.0 3.0 0.00 0.00 0.00 46 1011.0
20260906134924 84 305 1.0 3.0 0.00 0.00 0.00 46 1011.1
20260906134827 84 305 0.0 3.0 0.00 0.00 0.00 46 1011.1
20260906134756 84 305 0.0 4.0 0.00 0.00 0.00 46 1011.0
20260906134617 84 305 0.0 4.0 0.00 0.00 0.00 46 1011.0
20260906134518 84 305 0.0 4.0 0.00 0.00 0.00 46 1011.0
20260906134447 84 305 0.0 4.0 0.00 0.00 0.00 46 1011.0
20260906134338 84 305 0.0 4.0 0.00 0.00 0.00 46 1011.0
20260906134219 84 305 0.0 4.0 0.00 0.00 0.00 46 1010.9
20260906134120 83 305 1.0 4.0 0.00 0.00 0.00 46 1011.0
20260906134050 83 305 1.0 4.0 0.00 0.00 0.00 46 1011.0
20260906133958 83 305 1.0 4.0 0.00 0.00 0.00 46 1010.9
20260906133820 83 305 0.0 0.0 0.00 0.00 0.00 47 1010.9
20260906133742 83 305 0.0 2.0 0.00 0.00 0.00 46 1010.9
20260906133635 83 305 0.0 3.0 0.00 0.00 0.00 46 1010.9
20260906133517 83 305 0.0 3.0 0.00 0.00 0.00 46 1010.8
20260906133418 83 305 0.0 3.0 0.00 0.00 0.00 46 1010.8
20260906133328 83 305 0.0 3.0 0.00 0.00 0.00 46 1010.8
20260906133229 83 305 0.0 3.0 0.00 0.00 0.00 46 1010.8
20260906133132 83 305 0.0 3.0 0.00 0.00 0.00 46 1010.7
20260906133024 83 305 0.0 3.0 0.00 0.00 0.00 46 1010.7
20260906132925 83 305 1.0 3.0 0.00 0.00 0.00 46 1010.8
20260906132834 83 305 1.0 3.0 0.00 0.00 0.00 46 1010.8
20260906132717 83 305 1.0 2.0 0.00 0.00 0.00 46 1010.8
20260906132619 83 305 0.0 2.0 0.00 0.00 0.00 46 1010.8
20260906132521 83 304 1.0 2.0 0.00 0.00 0.00 46 1010.8
20260906132431 83 304 1.0 2.0 0.00 0.00 0.00 46 1010.8
20260906132317 83 304 0.0 2.0 0.00 0.00 0.00 46 1010.8
20260906132219 83 304 0.0 2.0 0.00 0.00 0.00 46 1010.8
20260906132146 83 304 0.0 2.0 0.00 0.00 0.00 46 1010.8
20260906132028 83 304 0.0 2.0 0.00 0.00 0.00 46 1010.8
20260906131930 83 304 0.0 2.0 0.00 0.00 0.00 46 1010.8
20260906131839 83 304 0.0 2.0 0.00 0.00 0.00 46 1010.8
20260906131724 83 304 0.0 2.0 0.00 0.00 0.00 46 1010.8
20260906131625 83 304 0.0 2.0 0.00 0.00 0.00 46 1010.8
20260906131534 83 304 1.0 2.0 0.00 0.00 0.00 47 1010.8
20260906131417 83 304 1.0 2.0 0.00 0.00 0.00 47 1010.7
20260906131339 83 298 1.0 2.0 0.00 0.00 0.00 47 1010.7
20260906131228 83 298 0.0 2.0 0.00 0.00 0.00 47 1010.7
20260906131150 83 298 0.0 2.0 0.00 0.00 0.00 47 1010.7
20260906131041 83 298 0.0 2.0 0.00 0.00 0.00 47 1010.7
20260906130950 83 288 0.0 1.0 0.00 0.00 0.00 47 1010.7
20260906130833 83 288 0.0 1.0 0.00 0.00 0.00 47 1010.7
20260906130735 83 288 0.0 1.0 0.00 0.00 0.00 47 1010.7
20260906130644 83 288 0.0 1.0 0.00 0.00 0.00 47 1010.6
20260906130546 83 288 0.0 1.0 0.00 0.00 0.00 47 1010.7
20260906130433 83 257 0.0 0.0 0.00 0.00 0.00 47 1010.7
20260906130320 83 257 0.0 0.0 0.00 0.00 0.00 47 1010.7
20260906130220 83 257 0.0 0.0 0.00 0.00 0.00 47 1010.6
20260906130130 83 257 0.0 0.0 0.00 0.00 0.00 47 1010.6
20260906130044 83 257 0.0 0.0 0.00 0.00 0.00 47 1010.7
20260906125942 83 257 0.0 0.0 0.00 0.00 0.00 46 1010.7
20260906125824 83 257 0.0 0.0 0.00 0.00 0.00 46 1010.6
20260906125728 83 257 0.0 0.0 0.00 0.00 0.00 46 1010.6
20260906125633 83 257 0.0 0.0 0.00 0.00 0.00 47 1010.6
20260906125515 83 257 0.0 0.0 0.00 0.00 0.00 46 1010.6
20260906125424 83 257 0.0 0.0 0.00 0.00 0.00 46 1010.7
20260906125328 83 257 0.0 0.0 0.00 0.00 0.00 46 1010.7
20260906125230 83 257 0.0 0.0 0.00 0.00 0.00 46 1010.6
20260906125116 83 257 0.0 0.0 0.00 0.00 0.00 46 1010.6
20260906125025 83 257 0.0 0.0 0.00 0.00 0.00 46 1010.6
20260906124928 83 257 0.0 0.0 0.00 0.00 0.00 47 1010.6
20260906124839 83 257 0.0 0.0 0.00 0.00 0.00 47 1010.6
20260906124740 83 257 0.0 0.0 0.00 0.00 0.00 47 1010.5
20260906124622 83 257 0.0 0.0 0.00 0.00 0.00 47 1010.5
20260906124529 83 257 0.0 0.0 0.00 0.00 0.00 47 1010.5
20260906124438 83 257 0.0 0.0 0.00 0.00 0.00 47 1010.5
20260906124319 83 257 0.0 0.0 0.00 0.00 0.00 47 1010.5
20260906124221 83 257 0.0 0.0 0.00 0.00 0.00 47 1010.6
20260906124131 83 257 0.0 0.0 0.00 0.00 0.00 47 1010.6
20260906124033 83 257 0.0 0.0 0.00 0.00 0.00 47 1010.5
20260906123918 83 257 0.0 0.0 0.00 0.00 0.00 47 1010.6
20260906123828 83 257 0.0 0.0 0.00 0.00 0.00 46 1010.6
20260906123749 83 257 0.0 0.0 0.00 0.00 0.00 47 1010.5
20260906123635 83 257 0.0 0.0 0.00 0.00 0.00 47 1010.6
20260906123518 83 257 0.0 0.0 0.00 0.00 0.00 47 1010.5
20260906123439 83 257 0.0 0.0 0.00 0.00 0.00 47 1010.6
20260906123329 83 257 0.0 0.0 0.00 0.00 0.00 47 1010.6
20260906123232 83 257 0.0 0.0 0.00 0.00 0.00 47 1010.6
20260906123132 83 257 0.0 0.0 0.00 0.00 0.00 47 1010.6
20260906123041 83 257 0.0 0.0 0.00 0.00 0.00 47 1010.6
20260906122924 83 257 0.0 0.0 0.00 0.00 0.00 47 1010.6
20260906122853 83 257 0.0 0.0 0.00 0.00 0.00 47 1010.6
20260906122753 83 257 0.0 0.0 0.00 0.00 0.00 47 1010.6
20260906122641 83 257 0.0 0.0 0.00 0.00 0.00 47 1010.5
20260906122522 83 257 0.0 0.0 0.00 0.00 0.00 47 1010.5
20260906122430 83 257 0.0 0.0 0.00 0.00 0.00 47 1010.5
20260906122339 83 257 0.0 0.0 0.00 0.00 0.00 47 1010.5
20260906122220 82 257 0.0 0.0 0.00 0.00 0.00 47 1010.5
20260906122122 82 257 0.0 0.0 0.00 0.00 0.00 47 1010.4
20260906122033 82 257 0.0 0.0 0.00 0.00 0.00 48 1010.4
20260906121935 82 257 0.0 0.0 0.00 0.00 0.00 48 1010.5
20260906121820 82 257 0.0 0.0 0.00 0.00 0.00 48 1010.4
20260906121721 82 257 0.0 0.0 0.00 0.00 0.00 48 1010.4
20260906121632 82 257 0.0 0.0 0.00 0.00 0.00 48 1010.4
20260906121533 82 257 0.0 0.0 0.00 0.00 0.00 48 1010.5
20260906121442 82 257 0.0 0.0 0.00 0.00 0.00 48 1010.4
20260906121324 82 257 0.0 0.0 0.00 0.00 0.00 48 1010.5
20260906121255 82 257 0.0 0.0 0.00 0.00 0.00 48 1010.5
20260906121119 82 257 0.0 0.0 0.00 0.00 0.00 49 1010.6
20260906121041 82 257 0.0 0.0 0.00 0.00 0.00 49 1010.6
20260906120930 82 257 0.0 0.0 0.00 0.00 0.00 48 1010.6
20260906120833 82 257 0.0 0.0 0.00 0.00 0.00 48 1010.6
20260906120735 82 257 0.0 0.0 0.00 0.00 0.00 48 1010.7
20260906120616 82 257 0.0 0.0 0.00 0.00 0.00 49 1010.7
20260906120530 82 257 0.0 0.0 0.00 0.00 0.00 49 1010.7
20260906120433 82 257 0.0 0.0 0.00 0.00 0.00 48 1010.6
20260906120335 82 257 0.0 0.0 0.00 0.00 0.00 49 1010.6
20260906120217 82 257 0.0 0.0 0.00 0.00 0.00 48 1010.5
20260906120127 82 257 0.0 0.0 0.00 0.00 0.00 48 1010.5
20260906120039 82 257 0.0 0.0 0.00 0.00 0.00 48 1010.5
20260906115915 82 257 0.0 0.0 0.00 0.00 0.00 48 1010.6
20260906115824 82 257 0.0 0.0 0.00 0.00 0.00 48 1010.5
20260906115726 82 257 0.0 0.0 0.00 0.00 0.00 48 1010.5
20260906115618 82 257 0.0 0.0 0.00 0.00 0.00 48 1010.5
20260906115528 82 257 0.0 0.0 0.00 0.00 0.00 49 1010.5
20260906115427 83 257 0.0 0.0 0.00 0.00 0.00 48 1010.6
20260906115340 83 257 0.0 0.0 0.00 0.00 0.00 47 1010.5
20260906115221 83 257 0.0 0.0 0.00 0.00 0.00 47 1010.6
20260906115123 83 257 0.0 0.0 0.00 0.00 0.00 47 1010.6
20260906115027 83 257 0.0 0.0 0.00 0.00 0.00 47 1010.6
20260906114935 83 257 0.0 0.0 0.00 0.00 0.00 47 1010.5
20260906114818 83 257 0.0 0.0 0.00 0.00 0.00 47 1010.5
20260906114723 83 257 0.0 0.0 0.00 0.00 0.00 47 1010.5
20260906114653 83 257 0.0 0.0 0.00 0.00 0.00 47 1010.5
20260906114533 83 257 0.0 0.0 0.00 0.00 0.00 47 1010.5
20260906114416 83 257 0.0 0.0 0.00 0.00 0.00 47 1010.5
20260906114317 83 257 0.0 0.0 0.00 0.00 0.00 47 1010.5
20260906114229 83 257 0.0 0.0 0.00 0.00 0.00 48 1010.5
20260906114157 83 257 0.0 0.0 0.00 0.00 0.00 47 1010.5
20260906114042 83 257 0.0 0.0 0.00 0.00 0.00 47 1010.5
20260906113923 83 257 0.0 0.0 0.00 0.00 0.00 47 1010.5
20260906113833 83 257 0.0 0.0 0.00 0.00 0.00 47 1010.5
20260906113733 83 257 0.0 0.0 0.00 0.00 0.00 47 1010.5
20260906113621 83 257 0.0 0.0 0.00 0.00 0.00 47 1010.5
20260906113523 83 257 0.0 0.0 0.00 0.00 0.00 47 1010.6
20260906113426 83 257 0.0 0.0 0.00 0.00 0.00 47 1010.6
20260906113339 83 257 0.0 0.0 0.00 0.00 0.00 46 1010.5
20260906113220 83 257 0.0 0.0 0.00 0.00 0.00 46 1010.5
20260906113150 83 257 0.0 0.0 0.00 0.00 0.00 46 1010.5
20260906113030 84 257 0.0 0.0 0.00 0.00 0.00 46 1010.6
20260906112932 84 257 0.0 0.0 0.00 0.00 0.00 46 1010.7
20260906112842 84 257 0.0 0.0 0.00 0.00 0.00 46 1010.6
20260906112720 84 257 0.0 0.0 0.00 0.00 0.00 46 1010.6
20260906112634 84 257 0.0 0.0 0.00 0.00 0.00 46 1010.6
20260906112517 84 257 0.0 0.0 0.00 0.00 0.00 45 1010.5
20260906112419 84 257 0.0 0.0 0.00 0.00 0.00 45 1010.5
20260906112321 84 257 0.0 0.0 0.00 0.00 0.00 46 1010.5
20260906112232 84 257 0.0 0.0 0.00 0.00 0.00 45 1010.5
20260906112117 84 257 0.0 0.0 0.00 0.00 0.00 45 1010.6
20260906112019 84 257 0.0 0.0 0.00 0.00 0.00 45 1010.5
20260906111928 84 257 0.0 0.0 0.00 0.00 0.00 45 1010.5
20260906111830 84 257 0.0 0.0 0.00 0.00 0.00 45 1010.6
20260906111733 84 257 0.0 0.0 0.00 0.00 0.00 45 1010.6
20260906111642 84 257 0.0 0.0 0.00 0.00 0.00 45 1010.6
20260906111521 85 257 0.0 0.0 0.00 0.00 0.00 45 1010.6
20260906111428 84 257 0.0 0.0 0.00 0.00 0.00 45 1010.6
20260906111337 84 257 0.0 0.0 0.00 0.00 0.00 45 1010.5
20260906111216 84 257 0.0 0.0 0.00 0.00 0.00 45 1010.5
20260906111124 84 257 0.0 0.0 0.00 0.00 0.00 45 1010.5
20260906111027 84 257 0.0 0.0 0.00 0.00 0.00 45 1010.5
20260906110929 84 257 0.0 0.0 0.00 0.00 0.00 45 1010.5
20260906110838 84 257 0.0 0.0 0.00 0.00 0.00 45 1010.5
20260906110724 84 257 0.0 0.0 0.00 0.00 0.00 45 1010.5
20260906110627 84 257 0.0 0.0 0.00 0.00 0.00 45 1010.5
20260906110535 85 257 0.0 0.0 0.00 0.00 0.00 45 1010.4
20260906110418 84 257 0.0 0.0 0.00 0.00 0.00 45 1010.4
20260906110340 85 257 0.0 0.0 0.00 0.00 0.00 45 1010.5
20260906110249 85 257 0.0 0.0 0.00 0.00 0.00 45 1010.5
20260906110157 84 257 0.0 0.0 0.00 0.00 0.00 45 1010.4
20260906110033 85 257 0.0 0.0 0.00 0.00 0.00 45 1010.4
20260906105923 84 257 0.0 0.0 0.00 0.00 0.00 45 1010.4
20260906105833 85 257 0.0 0.0 0.00 0.00 0.00 45 1010.4
20260906105732 84 257 0.0 0.0 0.00 0.00 0.00 45 1010.4
20260906105634 84 257 0.0 0.0 0.00 0.00 0.00 46 1010.4
20260906105516 84 257 0.0 0.0 0.00 0.00 0.00 45 1010.4
20260906105450 84 257 0.0 0.0 0.00 0.00 0.00 45 1010.4
20260906105332 84 257 0.0 0.0 0.00 0.00 0.00 45 1010.4
20260906105240 84 257 0.0 0.0 0.00 0.00 0.00 45 1010.4
20260906105121 84 257 0.0 0.0 0.00 0.00 0.00 45 1010.4
20260906105020 84 257 0.0 0.0 0.00 0.00 0.00 45 1010.4
20260906104930 84 257 0.0 0.0 0.00 0.00 0.00 45 1010.4
20260906104817 84 257 0.0 0.0 0.00 0.00 0.00 45 1010.4
20260906104717 84 257 0.0 0.0 0.00 0.00 0.00 46 1010.3
20260906104627 84 257 0.0 0.0 0.00 0.00 0.00 46 1010.3
20260906104530 84 257 0.0 0.0 0.00 0.00 0.00 45 1010.4
20260906104432 84 257 0.0 0.0 0.00 0.00 0.00 46 1010.4
20260906104341 84 257 0.0 0.0 0.00 0.00 0.00 45 1010.4
20260906104222 84 257 0.0 0.0 0.00 0.00 0.00 45 1010.4
20260906104136 84 257 0.0 0.0 0.00 0.00 0.00 45 1010.4
20260906104018 84 257 0.0 0.0 0.00 0.00 0.00 45 1010.4
20260906103922 84 257 0.0 0.0 0.00 0.00 0.00 45 1010.5
20260906103824 84 257 0.0 0.0 0.00 0.00 0.00 46 1010.5
20260906103733 84 257 0.0 0.0 0.00 0.00 0.00 46 1010.5
20260906103655 84 257 0.0 0.0 0.00 0.00 0.00 46 1010.4
20260906103543 84 257 0.0 0.0 0.00 0.00 0.00 46 1010.6
20260906103429 84 257 0.0 0.0 0.00 0.00 0.00 46 1010.6
20260906103357 84 257 0.0 0.0 0.00 0.00 0.00 46 1010.5
20260906103219 84 257 0.0 0.0 0.00 0.00 0.00 46 1010.5
20260906103120 84 257 0.0 0.0 0.00 0.00 0.00 46 1010.5
20260906103021 84 257 0.0 0.0 0.00 0.00 0.00 46 1010.4
20260906102932 84 257 0.0 0.0 0.00 0.00 0.00 46 1010.4
20260906102817 84 257 0.0 0.0 0.00 0.00 0.00 46 1010.4
20260906102719 84 257 0.0 0.0 0.00 0.00 0.00 45 1010.5
20260906102628 84 257 0.0 0.0 0.00 0.00 0.00 46 1010.5
20260906102529 84 257 0.0 0.0 0.00 0.00 0.00 46 1010.4
20260906102428 84 257 0.0 0.0 0.00 0.00 0.00 46 1010.4
20260906102337 84 257 0.0 0.0 0.00 0.00 0.00 46 1010.5
20260906102223 84 257 0.0 0.0 0.00 0.00 0.00 46 1010.4
20260906102127 84 257 0.0 0.0 0.00 0.00 0.00 46 1010.4
20260906102036 84 257 0.0 0.0 0.00 0.00 0.00 46 1010.4
20260906101919 84 257 0.0 0.0 0.00 0.00 0.00 46 1010.4
20260906101819 84 257 0.0 0.0 0.00 0.00 0.00 46 1010.5
20260906101720 83 257 0.0 0.0 0.00 0.00 0.00 46 1010.5
20260906101634 83 257 0.0 0.0 0.00 0.00 0.00 46 1010.5
20260906101535 83 257 0.0 0.0 0.00 0.00 0.00 47 1010.4
20260906101441 83 257 0.0 0.0 0.00 0.00 0.00 46 1010.5
20260906101323 84 257 0.0 0.0 0.00 0.00 0.00 46 1010.5
20260906101227 84 257 0.0 0.0 0.00 0.00 0.00 46 1010.5
20260906101129 84 257 0.0 0.0 0.00 0.00 0.00 47 1010.5
20260906101038 84 257 0.0 0.0 0.00 0.00 0.00 47 1010.6
20260906100943 84 257 0.0 0.0 0.00 0.00 0.00 47 1010.5
20260906100831 83 257 0.0 0.0 0.00 0.00 0.00 47 1010.5
20260906100733 83 257 0.0 0.0 0.00 0.00 0.00 48 1010.4
20260906100616 83 257 0.0 0.0 0.00 0.00 0.00 49 1010.4
20260906100518 83 257 0.0 0.0 0.00 0.00 0.00 48 1010.4
20260906100428 83 257 0.0 0.0 0.00 0.00 0.00 47 1010.4
20260906100333 84 257 0.0 0.0 0.00 0.00 0.00 46 1010.5
20260906100216 84 257 0.0 0.0 0.00 0.00 0.00 45 1010.5
20260906100118 84 257 0.0 0.0 0.00 0.00 0.00 46 1010.5
20260906100039 84 257 0.0 0.0 0.00 0.00 0.00 45 1010.5
20260906095931 84 257 0.0 0.0 0.00 0.00 0.00 45 1010.5
20260906095840 84 257 0.0 0.0 0.00 0.00 0.00 45 1010.4
20260906095725 84 257 0.0 1.0 0.00 0.00 0.00 45 1010.4
20260906095628 84 257 0.0 1.0 0.00 0.00 0.00 45 1010.4
20260906095537 84 257 0.0 1.0 0.00 0.00 0.00 46 1010.4
20260906095420 84 257 0.0 1.0 0.00 0.00 0.00 45 1010.4
20260906095323 84 257 0.0 1.0 0.00 0.00 0.00 45 1010.4
20260906095224 84 257 0.0 2.0 0.00 0.00 0.00 45 1010.4
20260906095117 84 257 0.0 2.0 0.00 0.00 0.00 45 1010.5
20260906095020 84 257 0.0 2.0 0.00 0.00 0.00 45 1010.5
20260906094922 84 257 0.0 2.0 0.00 0.00 0.00 45 1010.5
20260906094831 84 257 0.0 2.0 0.00 0.00 0.00 45 1010.5
20260906094733 84 257 0.0 2.0 0.00 0.00 0.00 45 1010.4
20260906094616 84 257 1.0 2.0 0.00 0.00 0.00 45 1010.5
20260906094520 84 257 1.0 2.0 0.00 0.00 0.00 45 1010.4
20260906094451 84 257 1.0 2.0 0.00 0.00 0.00 45 1010.4
20260906094329 84 257 0.0 2.0 0.00 0.00 0.00 45 1010.4
20260906094238 84 257 0.0 2.0 0.00 0.00 0.00 45 1010.4
20260906094120 84 257 1.0 2.0 0.00 0.00 0.00 45 1010.4
20260906094023 84 257 1.0 2.0 0.00 0.00 0.00 45 1010.4
20260906093930 84 257 0.0 2.0 0.00 0.00 0.00 45 1010.4
20260906093839 84 257 0.0 2.0 0.00 0.00 0.00 45 1010.4
20260906093719 84 257 0.0 2.0 0.00 0.00 0.00 45 1010.4
20260906093621 84 257 1.0 2.0 0.00 0.00 0.00 45 1010.5
20260906093523 85 257 1.0 2.0 0.00 0.00 0.00 44 1010.4
20260906093433 85 257 0.0 2.0 0.00 0.00 0.00 44 1010.4
20260906093320 85 257 0.0 1.0 0.00 0.00 0.00 44 1010.5
20260906093221 85 257 0.0 1.0 0.00 0.00 0.00 44 1010.4
20260906093122 85 257 0.0 1.0 0.00 0.00 0.00 44 1010.5
20260906093033 85 257 0.0 1.0 0.00 0.00 0.00 43 1010.5
20260906092915 86 257 1.0 1.0 0.00 0.00 0.00 43 1010.5
20260906092817 86 257 0.0 1.0 0.00 0.00 0.00 43 1010.5
20260906092722 86 257 0.0 1.0 0.00 0.00 0.00 42 1010.5
20260906092633 86 257 0.0 1.0 0.00 0.00 0.00 42 1010.5
20260906092516 86 257 0.0 2.0 0.00 0.00 0.00 42 1010.5
20260906092418 86 257 0.0 2.0 0.00 0.00 0.00 43 1010.5
20260906092329 86 257 0.0 2.0 0.00 0.00 0.00 43 1010.5
20260906092251 86 257 0.0 2.0 0.00 0.00 0.00 42 1010.5
20260906092143 86 257 0.0 2.0 0.00 0.00 0.00 42 1010.6
20260906092043 86 257 0.0 2.0 0.00 0.00 0.00 42 1010.5
20260906091925 86 257 0.0 2.0 0.00 0.00 0.00 42 1010.5
20260906091855 86 257 0.0 2.0 0.00 0.00 0.00 42 1010.5
20260906091717 86 257 1.0 2.0 0.00 0.00 0.00 42 1010.5
20260906091617 86 257 0.0 2.0 0.00 0.00 0.00 42 1010.5
20260906091528 86 257 0.0 2.0 0.00 0.00 0.00 42 1010.5
20260906091433 86 257 0.0 2.0 0.00 0.00 0.00 42 1010.4
20260906091315 86 257 0.0 2.0 0.00 0.00 0.00 42 1010.4
20260906091217 86 257 0.0 2.0 0.00 0.00 0.00 42 1010.4
20260906091127 86 257 0.0 3.0 0.00 0.00 0.00 42 1010.4
20260906091029 86 257 0.0 3.0 0.00 0.00 0.00 42 1010.4
20260906090915 86 257 1.0 4.0 0.00 0.00 0.00 42 1010.4
20260906090817 86 257 1.0 4.0 0.00 0.00 0.00 42 1010.3
20260906090746 86 257 1.0 4.0 0.00 0.00 0.00 42 1010.4
20260906090636 86 257 1.0 4.0 0.00 0.00 0.00 42 1010.4
20260906090537 86 257 1.0 4.0 0.00 0.00 0.00 42 1010.3
20260906090420 86 257 1.0 4.0 0.00 0.00 0.00 42 1010.3
20260906090322 86 257 1.0 4.0 0.00 0.00 0.00 42 1010.2
20260906090237 86 257 1.0 4.0 0.00 0.00 0.00 42 1010.2
20260906090118 86 257 1.0 4.0 0.00 0.00 0.00 42 1010.3
20260906090032 86 257 1.0 4.0 0.00 0.00 0.00 42 1010.3
20260906085923 86 257 1.0 4.0 0.00 0.00 0.00 42 1010.3
20260906085833 86 257 1.0 4.0 0.00 0.00 0.00 42 1010.3
20260906085718 86 257 1.0 3.0 0.00 0.00 0.00 42 1010.3
20260906085620 86 257 0.0 2.0 0.00 0.00 0.00 42 1010.4
20260906085532 86 257 0.0 2.0 0.00 0.00 0.00 42 1010.4
20260906085453 86 257 0.0 2.0 0.00 0.00 0.00 42 1010.4
20260906085341 86 257 0.0 2.0 0.00 0.00 0.00 42 1010.4
20260906085224 86 257 0.0 2.0 0.00 0.00 0.00 42 1010.4
20260906085126 86 257 0.0 2.0 0.00 0.00 0.00 42 1010.4
20260906085032 86 257 1.0 2.0 0.00 0.00 0.00 42 1010.3
20260906084941 86 257 0.0 2.0 0.00 0.00 0.00 42 1010.3
20260906084824 86 257 0.0 2.0 0.00 0.00 0.00 42 1010.3
20260906084727 86 257 1.0 2.0 0.00 0.00 0.00 42 1010.3
20260906084635 86 257 0.0 2.0 0.00 0.00 0.00 42 1010.3
20260906084518 85 257 0.0 1.0 0.00 0.00 0.00 42 1010.4
20260906084443 85 257 0.0 1.0 0.00 0.00 0.00 43 1010.3
20260906084333 85 257 0.0 1.0 0.00 0.00 0.00 42 1010.3
20260906084234 85 257 0.0 1.0 0.00 0.00 0.00 42 1010.5
20260906084143 85 257 0.0 1.0 0.00 0.00 0.00 42 1010.4
20260906084022 85 257 0.0 1.0 0.00 0.00 0.00 42 1010.4
20260906083923 85 257 0.0 1.0 0.00 0.00 0.00 42 1010.4
20260906083833 85 257 0.0 1.0 0.00 0.00 0.00 42 1010.4
20260906083738 85 257 0.0 1.0 0.00 0.00 0.00 42 1010.5
20260906083628 85 257 0.0 1.0 0.00 0.00 0.00 42 1010.5
20260906083530 85 257 0.0 1.0 0.00 0.00 0.00 42 1010.5
20260906083432 85 257 0.0 1.0 0.00 0.00 0.00 42 1010.4
20260906083341 85 257 0.0 0.0 0.00 0.00 0.00 42 1010.5
20260906083223 86 257 0.0 0.0 0.00 0.00 0.00 42 1010.5
20260906083129 86 257 0.0 0.0 0.00 0.00 0.00 42 1010.5
20260906083059 86 257 0.0 0.0 0.00 0.00 0.00 42 1010.5
20260906082918 86 257 0.0 0.0 0.00 0.00 0.00 41 1010.5
20260906082848 86 257 0.0 0.0 0.00 0.00 0.00 41 1010.5
20260906082728 86 257 0.0 0.0 0.00 0.00 0.00 41 1010.6
20260906082657 86 257 0.0 0.0 0.00 0.00 0.00 41 1010.5
20260906082517 87 257 0.0 0.0 0.00 0.00 0.00 41 1010.6
20260906082418 87 257 0.0 0.0 0.00 0.00 0.00 41 1010.6
20260906082345 87 257 0.0 0.0 0.00 0.00 0.00 41 1010.6
20260906082240 87 257 0.0 0.0 0.00 0.00 0.00 41 1010.6
20260906082141 87 257 0.0 0.0 0.00 0.00 0.00 41 1010.6
20260906082024 87 257 0.0 0.0 0.00 0.00 0.00 41 1010.5
20260906081927 87 257 0.0 0.0 0.00 0.00 0.00 41 1010.5
20260906081835 87 257 0.0 0.0 0.00 0.00 0.00 41 1010.6
20260906081737 87 257 0.0 0.0 0.00 0.00 0.00 40 1010.6
20260906081645 87 257 0.0 1.0 0.00 0.00 0.00 41 1010.6
20260906081558 87 257 0.0 1.0 0.00 0.00 0.00 40 1010.6
20260906081420 87 257 0.0 1.0 0.00 0.00 0.00 40 1010.6
20260906081321 87 257 0.0 1.0 0.00 0.00 0.00 40 1010.6
20260906081231 87 257 0.0 1.0 0.00 0.00 0.00 40 1010.6
20260906081133 87 257 0.0 1.0 0.00 0.00 0.00 40 1010.6
20260906081102 87 257 0.0 2.0 0.00 0.00 0.00 40 1010.6
20260906080943 87 257 0.0 2.0 0.00 0.00 0.00 40 1010.7
20260906080828 87 257 0.0 2.0 0.00 0.00 0.00 40 1010.7
20260906080738 87 257 0.0 2.0 0.00 0.00 0.00 40 1010.7
20260906080620 87 257 0.0 2.0 0.00 0.00 0.00 40 1010.7
20260906080521 87 257 0.0 2.0 0.00 0.00 0.00 40 1010.7
20260906080451 87 257 0.0 2.0 0.00 0.00 0.00 40 1010.7
20260906080333 87 257 0.0 2.0 0.00 0.00 0.00 40 1010.7
20260906080218 87 257 0.0 2.0 0.00 0.00 0.00 40 1010.8
20260906080149 87 257 0.0 2.0 0.00 0.00 0.00 40 1010.8
20260906080040 87 257 1.0 2.0 0.00 0.00 0.00 40 1010.7
20260906075939 87 257 0.0 2.0 0.00 0.00 0.00 40 1010.8
20260906075821 87 257 0.0 1.0 0.00 0.00 0.00 40 1010.8
20260906075723 87 257 0.0 1.0 0.00 0.00 0.00 40 1010.8
20260906075624 87 257 1.0 1.0 0.00 0.00 0.00 40 1010.7
20260906075538 87 257 1.0 1.0 0.00 0.00 0.00 40 1010.7
20260906075439 87 257 0.0 1.0 0.00 0.00 0.00 40 1010.7
20260906075319 87 257 0.0 1.0 0.00 0.00 0.00 40 1010.8
20260906075229 87 257 0.0 1.0 0.00 0.00 0.00 40 1010.8
20260906075132 87 257 0.0 2.0 0.00 0.00 0.00 40 1010.8
20260906075042 87 257 0.0 2.0 0.00 0.00 0.00 40 1010.8
20260906074927 87 257 0.0 2.0 0.00 0.00 0.00 40 1010.8
20260906074828 87 257 0.0 2.0 0.00 0.00 0.00 40 1010.8
20260906074717 87 257 0.0 2.0 0.00 0.00 0.00 40 1010.8
20260906074617 87 257 0.0 2.0 0.00 0.00 0.00 40 1010.8
20260906074528 87 257 0.0 2.0 0.00 0.00 0.00 40 1010.8
20260906074429 87 257 0.0 2.0 0.00 0.00 0.00 40 1010.8
20260906074358 87 257 0.0 2.0 0.00 0.00 0.00 40 1010.8
20260906074222 87 257 0.0 2.0 0.00 0.00 0.00 40 1010.8
20260906074124 87 257 0.0 2.0 0.00 0.00 0.00 40 1010.9
20260906074032 87 257 0.0 2.0 0.00 0.00 0.00 40 1010.9
20260906073933 87 257 0.0 2.0 0.00 0.00 0.00 40 1011.0
20260906073835 87 257 0.0 2.0 0.00 0.00 0.00 40 1011.0
20260906073744 87 257 1.0 2.0 0.00 0.00 0.00 39 1011.1
20260906073624 88 257 1.0 2.0 0.00 0.00 0.00 39 1011.0
20260906073538 88 257 1.0 2.0 0.00 0.00 0.00 39 1011.0
20260906073421 88 257 0.0 2.0 0.00 0.00 0.00 39 1011.0
20260906073323 88 257 0.0 2.0 0.00 0.00 0.00 38 1010.8
20260906073227 88 257 0.0 2.0 0.00 0.00 0.00 38 1010.8
20260906073156 88 257 0.0 2.0 0.00 0.00 0.00 38 1010.8
20260906073016 88 257 0.0 2.0 0.00 0.00 0.00 38 1010.9
20260906072945 88 257 0.0 2.0 0.00 0.00 0.00 38 1010.8
20260906072830 88 257 0.0 2.0 0.00 0.00 0.00 38 1010.8
20260906072759 88 257 0.0 2.0 0.00 0.00 0.00 38 1010.8
20260906072621 88 257 0.0 3.0 0.00 0.00 0.00 38 1010.8
20260906072523 88 257 0.0 3.0 0.00 0.00 0.00 38 1010.8
20260906072427 88 257 0.0 3.0 0.00 0.00 0.00 38 1010.8
20260906072336 88 257 1.0 3.0 0.00 0.00 0.00 38 1010.9
20260906072242 89 257 1.0 3.0 0.00 0.00 0.00 38 1010.8
20260906072122 89 257 0.0 3.0 0.00 0.00 0.00 37 1010.8
20260906072033 89 257 0.0 3.0 0.00 0.00 0.00 38 1010.8
20260906072003 89 257 1.0 3.0 0.00 0.00 0.00 37 1010.8
20260906071824 89 257 1.0 3.0 0.00 0.00 0.00 38 1010.8
20260906071725 89 257 1.0 3.0 0.00 0.00 0.00 37 1010.9
20260906071627 89 257 1.0 3.0 0.00 0.00 0.00 37 1010.9
20260906071541 89 257 0.0 3.0 0.00 0.00 0.00 37 1010.8
20260906071423 89 257 0.0 3.0 0.00 0.00 0.00 37 1010.9
20260906071326 89 257 0.0 4.0 0.00 0.00 0.00 37 1010.9
20260906071228 89 257 1.0 4.0 0.00 0.00 0.00 37 1011.0
20260906071136 89 257 1.0 4.0 0.00 0.00 0.00 37 1011.0
20260906071018 89 257 1.0 4.0 0.00 0.00 0.00 37 1011.1
20260906070923 89 257 1.0 4.0 0.00 0.00 0.00 37 1011.0
20260906070833 88 257 1.0 4.0 0.00 0.00 0.00 38 1011.0
20260906070715 88 257 1.0 4.0 0.00 0.00 0.00 38 1011.1
20260906070638 88 257 2.0 4.0 0.00 0.00 0.00 38 1011.1
20260906070526 88 257 1.0 4.0 0.00 0.00 0.00 38 1011.1
20260906070428 88 257 0.0 3.0 0.00 0.00 0.00 38 1011.1
20260906070335 88 257 0.0 3.0 0.00 0.00 0.00 38 1011.2
20260906070241 88 257 0.0 3.0 0.00 0.00 0.00 38 1011.1
20260906070122 88 257 0.0 3.0 0.00 0.00 0.00 38 1011.1
20260906070041 88 257 0.0 3.0 0.00 0.00 0.00 38 1011.1
20260906065939 88 257 0.0 3.0 0.00 0.00 0.00 38 1011.1
20260906065822 88 257 0.0 3.0 0.00 0.00 0.00 39 1011.1
20260906065724 88 257 1.0 3.0 0.00 0.00 0.00 39 1011.1
20260906065630 88 257 1.0 3.0 0.00 0.00 0.00 39 1011.1
20260906065539 87 257 1.0 2.0 0.00 0.00 0.00 39 1011.1
20260906065422 87 257 0.0 2.0 0.00 0.00 0.00 39 1011.1
20260906065324 87 257 0.0 0.0 0.00 0.00 0.00 39 1011.1
20260906065226 87 257 0.0 0.0 0.00 0.00 0.00 39 1011.1
20260906065135 87 257 0.0 0.0 0.00 0.00 0.00 39 1011.0
20260906065042 87 257 0.0 0.0 0.00 0.00 0.00 39 1011.1
20260906064931 88 257 0.0 0.0 0.00 0.00 0.00 39 1011.1
20260906064833 88 257 0.0 0.0 0.00 0.00 0.00 39 1011.0
20260906064735 88 257 0.0 0.0 0.00 0.00 0.00 39 1011.0
20260906064617 88 257 0.0 0.0 0.00 0.00 0.00 39 1011.0
20260906064527 88 257 0.0 0.0 0.00 0.00 0.00 38 1011.0
20260906064433 88 257 0.0 2.0 0.00 0.00 0.00 38 1011.0
20260906064339 88 257 0.0 2.0 0.00 0.00 0.00 38 1011.0
20260906064221 88 257 0.0 2.0 0.00 0.00 0.00 38 1011.0
20260906064123 88 257 0.0 2.0 0.00 0.00 0.00 38 1010.9
20260906064026 88 257 0.0 2.0 0.00 0.00 0.00 38 1010.9
20260906063935 88 257 0.0 2.0 0.00 0.00 0.00 38 1010.9
20260906063822 88 257 0.0 2.0 0.00 0.00 0.00 38 1011.0
20260906063724 89 257 0.0 2.0 0.00 0.00 0.00 38 1010.9
20260906063627 89 257 0.0 2.0 0.00 0.00 0.00 38 1011.0
20260906063536 89 257 0.0 1.0 0.00 0.00 0.00 38 1011.0
20260906063419 89 257 0.0 1.0 0.00 0.00 0.00 38 1011.1
20260906063321 89 257 0.0 1.0 0.00 0.00 0.00 38 1011.0
20260906063226 89 257 0.0 0.0 0.00 0.00 0.00 38 1011.0
20260906063136 89 257 0.0 0.0 0.00 0.00 0.00 38 1011.0
20260906063019 89 257 0.0 0.0 0.00 0.00 0.00 37 1011.0
20260906062921 89 257 0.0 0.0 0.00 0.00 0.00 38 1011.0
20260906062851 89 257 0.0 0.0 0.00 0.00 0.00 38 1011.0
20260906062732 89 257 0.0 0.0 0.00 0.00 0.00 37 1011.0
20260906062618 89 257 0.0 0.0 0.00 0.00 0.00 37 1010.9
20260906062527 89 257 0.0 0.0 0.00 0.00 0.00 37 1011.0
20260906062430 89 257 0.0 0.0 0.00 0.00 0.00 37 1011.0
20260906062358 89 257 0.0 0.0 0.00 0.00 0.00 37 1010.8
20260906062220 89 257 0.0 0.0 0.00 0.00 0.00 37 1010.8
20260906062122 89 257 0.0 0.0 0.00 0.00 0.00 37 1010.8
20260906062025 89 257 0.0 0.0 0.00 0.00 0.00 37 1010.8
20260906061939 89 257 0.0 0.0 0.00 0.00 0.00 37 1010.8
20260906061819 89 257 0.0 1.0 0.00 0.00 0.00 37 1010.9
20260906061740 89 257 0.0 1.0 0.00 0.00 0.00 37 1010.8
20260906061629 89 257 0.0 1.0 0.00 0.00 0.00 37 1010.8
20260906061532 89 257 0.0 1.0 0.00 0.00 0.00 37 1010.8
20260906061435 89 257 0.0 1.0 0.00 0.00 0.00 37 1010.9
20260906061321 89 257 0.0 1.0 0.00 0.00 0.00 37 1010.8
20260906061231 89 257 0.0 1.0 0.00 0.00 0.00 37 1010.8
20260906061133 89 257 0.0 1.0 0.00 0.00 0.00 37 1010.9
20260906061015 89 257 0.0 0.0 0.00 0.00 0.00 37 1010.9
20260906060945 89 257 0.0 0.0 0.00 0.00 0.00 37 1010.8
20260906060846 89 257 0.0 0.0 0.00 0.00 0.00 36 1010.9
20260906060755 89 257 0.0 0.0 0.00 0.00 0.00 36 1010.9
20260906060620 89 257 0.0 1.0 0.00 0.00 0.00 36 1010.9
20260906060530 89 257 0.0 1.0 0.00 0.00 0.00 36 1010.9
20260906060432 89 257 0.0 1.0 0.00 0.00 0.00 37 1010.9
20260906060333 89 257 0.0 1.0 0.00 0.00 0.00 36 1010.9
20260906060242 89 257 0.0 1.0 0.00 0.00 0.00 36 1011.0
20260906060123 89 257 0.0 1.0 0.00 0.00 0.00 36 1011.0
20260906060040 89 257 0.0 1.0 0.00 0.00 0.00 36 1011.0
20260906055938 89 257 0.0 1.0 0.00 0.00 0.00 37 1010.9
20260906055820 89 257 0.0 1.0 0.00 0.00 0.00 37 1011.0
20260906055721 90 257 0.0 1.0 0.00 0.00 0.00 37 1011.1
20260906055623 90 257 0.0 1.0 0.00 0.00 0.00 37 1011.1
20260906055533 90 257 0.0 2.0 0.00 0.00 0.00 37 1011.1
20260906055419 90 257 0.0 2.0 0.00 0.00 0.00 37 1011.1
20260906055320 90 257 0.0 2.0 0.00 0.00 0.00 37 1011.1
20260906055231 90 257 0.0 2.0 0.00 0.00 0.00 37 1011.1
20260906055151 90 257 0.0 2.0 0.00 0.00 0.00 37 1011.1
20260906055039 90 257 0.0 2.0 0.00 0.00 0.00 37 1011.1
20260906054921 90 257 1.0 2.0 0.00 0.00 0.00 37 1011.1
20260906054822 89 257 1.0 2.0 0.00 0.00 0.00 37 1011.1
20260906054756 89 257 1.0 2.0 0.00 0.00 0.00 37 1011.1
20260906054617 89 257 0.0 2.0 0.00 0.00 0.00 37 1011.1
20260906054519 89 257 0.0 1.0 0.00 0.00 0.00 37 1011.1
20260906054426 89 257 0.0 1.0 0.00 0.00 0.00 37 1011.2
20260906054327 89 257 0.0 1.0 0.00 0.00 0.00 37 1011.1
20260906054237 90 257 0.0 1.0 0.00 0.00 0.00 37 1011.1
20260906054124 90 257 0.0 0.0 0.00 0.00 0.00 37 1011.1
20260906054027 90 257 0.0 0.0 0.00 0.00 0.00 37 1011.1
20260906053934 90 257 0.0 0.0 0.00 0.00 0.00 37 1011.1
20260906053816 90 257 0.0 0.0 0.00 0.00 0.00 37 1011.1
20260906053718 90 257 0.0 0.0 0.00 0.00 0.00 37 1011.0
20260906053647 90 257 0.0 0.0 0.00 0.00 0.00 37 1011.0
20260906053556 90 257 0.0 0.0 0.00 0.00 0.00 37 1011.0
20260906053421 90 257 0.0 0.0 0.00 0.00 0.00 37 1011.0
20260906053343 90 257 0.0 0.0 0.00 0.00 0.00 37 1011.0
20260906053233 89 257 0.0 0.0 0.00 0.00 0.00 37 1011.0
20260906053135 89 257 0.0 0.0 0.00 0.00 0.00 37 1011.0
20260906053018 89 257 0.0 0.0 0.00 0.00 0.00 37 1011.1
20260906052919 89 257 0.0 0.0 0.00 0.00 0.00 37 1011.0
20260906052830 89 257 0.0 0.0 0.00 0.00 0.00 37 1011.0
20260906052735 89 257 0.0 0.0 0.00 0.00 0.00 36 1011.0
20260906052616 89 257 0.0 0.0 0.00 0.00 0.00 37 1011.0
20260906052524 89 257 0.0 0.0 0.00 0.00 0.00 37 1011.0
20260906052446 89 257 0.0 0.0 0.00 0.00 0.00 37 1011.0
20260906052342 89 257 0.0 0.0 0.00 0.00 0.00 37 1011.0
20260906052223 89 257 0.0 0.0 0.00 0.00 0.00 37 1011.1
20260906052125 89 257 0.0 0.0 0.00 0.00 0.00 37 1011.1
20260906052018 89 257 0.0 0.0 0.00 0.00 0.00 36 1011.1
20260906051921 90 257 0.0 0.0 0.00 0.00 0.00 36 1011.1
20260906051823 90 257 0.0 0.0 0.00 0.00 0.00 36 1011.1
20260906051732 90 257 0.0 0.0 0.00 0.00 0.00 36 1011.1
20260906051634 90 257 0.0 0.0 0.00 0.00 0.00 36 1011.1
20260906051520 90 257 0.0 0.0 0.00 0.00 0.00 36 1011.1
20260906051421 90 257 0.0 0.0 0.00 0.00 0.00 36 1011.2
20260906051351 90 257 0.0 0.0 0.00 0.00 0.00 36 1011.2
20260906051231 90 257 0.0 0.0 0.00 0.00 0.00 36 1011.1
20260906051141 90 257 0.0 0.0 0.00 0.00 0.00 36 1011.2
20260906051023 90 257 0.0 0.0 0.00 0.00 0.00 36 1011.2
20260906050925 90 257 0.0 0.0 0.00 0.00 0.00 36 1011.2
20260906050837 90 257 0.0 0.0 0.00 0.00 0.00 36 1011.2
20260906050719 90 257 0.0 0.0 0.00 0.00 0.00 36 1011.2
20260906050623 90 257 0.0 0.0 0.00 0.00 0.00 36 1011.2
20260906050525 90 257 0.0 0.0 0.00 0.00 0.00 36 1011.2
20260906050434 90 257 0.0 0.0 0.00 0.00 0.00 36 1011.2
20260906050316 90 257 0.0 0.0 0.00 0.00 0.00 36 1011.2
20260906050222 90 257 0.0 0.0 0.00 0.00 0.00 36 1011.3
20260906050124 90 257 0.0 0.0 0.00 0.00 0.00 36 1011.3
20260906050046 90 257 0.0 0.0 0.00 0.00 0.00 36 1011.3
20260906045917 90 257 0.0 0.0 0.00 0.00 0.00 36 1011.2
20260906045819 90 257 0.0 0.0 0.00 0.00 0.00 36 1011.2
20260906045748 90 257 0.0 0.0 0.00 0.00 0.00 36 1011.2
20260906045635 90 257 0.0 0.0 0.00 0.00 0.00 36 1011.2
20260906045520 90 257 0.0 0.0 0.00 0.00 0.00 36 1011.1
20260906045449 90 257 0.0 0.0 0.00 0.00 0.00 36 1011.1
20260906045331 90 257 0.0 0.0 0.00 0.00 0.00 36 1011.1
20260906045240 90 257 0.0 0.0 0.00 0.00 0.00 37 1011.2
20260906045120 90 257 0.0 0.0 0.00 0.00 0.00 37 1011.1
20260906045027 90 257 0.0 0.0 0.00 0.00 0.00 36 1011.1
20260906044930 90 257 0.0 0.0 0.00 0.00 0.00 36 1011.1
20260906044815 90 257 0.0 0.0 0.00 0.00 0.00 36 1011.2
20260906044725 90 257 0.0 0.0 0.00 0.00 0.00 37 1011.1
20260906044627 90 257 0.0 0.0 0.00 0.00 0.00 36 1011.2
20260906044528 90 257 0.0 0.0 0.00 0.00 0.00 36 1011.2
20260906044416 90 257 0.0 0.0 0.00 0.00 0.00 36 1011.1
20260906044318 90 257 0.0 0.0 0.00 0.00 0.00 36 1011.1
20260906044220 90 257 0.0 0.0 0.00 0.00 0.00 36 1011.1
20260906044153 90 257 0.0 0.0 0.00 0.00 0.00 36 1011.1
20260906044033 90 257 0.0 0.0 0.00 0.00 0.00 36 1011.1
20260906043915 90 257 0.0 0.0 0.00 0.00 0.00 36 1011.1
20260906043827 91 257 0.0 0.0 0.00 0.00 0.00 36 1011.1
20260906043727 91 257 0.0 0.0 0.00 0.00 0.00 36 1011.0
20260906043638 91 257 0.0 0.0 0.00 0.00 0.00 36 1011.0
20260906043543 91 257 0.0 1.0 0.00 0.00 0.00 36 1011.1
20260906043424 91 257 0.0 1.0 0.00 0.00 0.00 36 1011.1
20260906043332 91 257 0.0 1.0 0.00 0.00 0.00 36 1011.1
20260906043234 91 257 0.0 2.0 0.00 0.00 0.00 36 1011.1
20260906043115 91 257 0.0 2.0 0.00 0.00 0.00 36 1011.1
20260906043025 91 257 0.0 2.0 0.00 0.00 0.00 36 1011.1
20260906042926 91 257 0.0 2.0 0.00 0.00 0.00 36 1011.1
20260906042832 91 257 0.0 2.0 0.00 0.00 0.00 35 1011.1
20260906042740 91 257 0.0 2.0 0.00 0.00 0.00 35 1011.2
20260906042623 91 257 0.0 2.0 0.00 0.00 0.00 35 1011.2
20260906042545 91 257 0.0 2.0 0.00 0.00 0.00 35 1011.3
20260906042434 91 257 0.0 2.0 0.00 0.00 0.00 35 1011.3
20260906042335 91 257 0.0 2.0 0.00 0.00 0.00 35 1011.3
20260906042220 91 257 0.0 2.0 0.00 0.00 0.00 35 1011.3
20260906042129 91 257 1.0 2.0 0.00 0.00 0.00 35 1011.3
20260906042029 92 257 1.0 2.0 0.00 0.00 0.00 35 1011.3
20260906041916 92 257 0.0 2.0 0.00 0.00 0.00 35 1011.2
20260906041819 92 257 0.0 2.0 0.00 0.00 0.00 35 1011.3
20260906041728 92 257 1.0 2.0 0.00 0.00 0.00 34 1011.3
20260906041627 92 257 0.0 2.0 0.00 0.00 0.00 34 1011.3
20260906041557 92 257 0.0 2.0 0.00 0.00 0.00 34 1011.3
20260906041422 92 257 0.0 1.0 0.00 0.00 0.00 34 1011.3
20260906041344 92 257 0.0 1.0 0.00 0.00 0.00 34 1011.3
20260906041233 92 257 0.0 1.0 0.00 0.00 0.00 34 1011.3
20260906041134 92 257 0.0 1.0 0.00 0.00 0.00 34 1011.2
20260906041017 92 257 0.0 1.0 0.00 0.00 0.00 34 1011.2
20260906040919 92 257 0.0 1.0 0.00 0.00 0.00 34 1011.2
20260906040834 92 257 0.0 1.0 0.00 0.00 0.00 34 1011.2
20260906040716 92 257 0.0 1.0 0.00 0.00 0.00 34 1011.1
20260906040618 92 257 0.0 1.0 0.00 0.00 0.00 34 1011.1
20260906040525 92 257 0.0 1.0 0.00 0.00 0.00 34 1011.1
20260906040427 92 257 0.0 1.0 0.00 0.00 0.00 34 1011.1
20260906040328 92 257 0.0 1.0 0.00 0.00 0.00 35 1011.1
20260906040221 92 257 0.0 1.0 0.00 0.00 0.00 35 1011.1
20260906040149 92 257 0.0 1.0 0.00 0.00 0.00 35 1011.1
20260906040042 92 257 0.0 1.0 0.00 0.00 0.00 35 1011.1
20260906035941 92 257 0.0 0.0 0.00 0.00 0.00 35 1011.2
20260906035815 92 257 0.0 0.0 0.00 0.00 0.00 35 1011.0
20260906035725 92 257 0.0 0.0 0.00 0.00 0.00 35 1011.2
20260906035625 92 257 0.0 0.0 0.00 0.00 0.00 34 1011.2
20260906035541 92 257 0.0 0.0 0.00 0.00 0.00 35 1011.2
20260906035422 92 257 0.0 0.0 0.00 0.00 0.00 34 1011.1
20260906035324 92 257 0.0 0.0 0.00 0.00 0.00 34 1011.1
20260906035254 92 257 0.0 0.0 0.00 0.00 0.00 34 1011.1
20260906035115 92 257 0.0 0.0 0.00 0.00 0.00 34 1011.0
20260906035037 92 257 0.0 0.0 0.00 0.00 0.00 34 1011.1
20260906034930 92 257 0.0 0.0 0.00 0.00 0.00 34 1011.1
20260906034834 92 257 0.0 0.0 0.00 0.00 0.00 34 1011.1
20260906034732 92 257 0.0 0.0 0.00 0.00 0.00 33 1011.1
20260906034641 92 257 0.0 0.0 0.00 0.00 0.00 33 1011.0
20260906034523 92 257 0.0 0.0 0.00 0.00 0.00 33 1011.0
20260906034425 92 257 0.0 0.0 0.00 0.00 0.00 33 1011.0
20260906034332 92 257 0.0 0.0 0.00 0.00 0.00 33 1011.0
20260906034237 92 257 0.0 0.0 0.00 0.00 0.00 33 1011.0
20260906034120 92 257 0.0 0.0 0.00 0.00 0.00 33 1010.9
20260906034041 92 257 0.0 0.0 0.00 0.00 0.00 33 1010.9
20260906033950 92 257 0.0 0.0 0.00 0.00 0.00 33 1010.9
20260906033857 92 257 0.0 0.0 0.00 0.00 0.00 33 1010.9
20260906033814 92 257 0.0 0.0 0.00 0.00 0.00 33 1010.9
20260906033701 92 257 0.0 0.0 0.00 0.00 0.00 33 1010.8
20260906033538 92 257 0.0 0.0 0.00 0.00 0.00 33 1010.8
20260906033431 92 257 0.0 0.0 0.00 0.00 0.00 33 1010.8
20260906033331 92 257 0.0 0.0 0.00 0.00 0.00 33 1010.8
20260906033234 92 257 0.0 0.0 0.00 0.00 0.00 33 1010.8
20260906033142 92 257 0.0 0.0 0.00 0.00 0.00 33 1010.8
20260906033052 92 257 0.0 0.0 0.00 0.00 0.00 33 1010.8
20260906032950 92 257 0.0 0.0 0.00 0.00 0.00 33 1010.8
20260906032837 92 257 0.0 1.0 0.00 0.00 0.00 33 1010.9
20260906032719 92 257 0.0 1.0 0.00 0.00 0.00 33 1010.8
20260906032649 92 257 0.0 1.0 0.00 0.00 0.00 33 1010.8
20260906032534 92 257 0.0 1.0 0.00 0.00 0.00 33 1010.8
20260906032416 92 257 0.0 1.0 0.00 0.00 0.00 33 1010.7
20260906032346 92 257 0.0 1.0 0.00 0.00 0.00 33 1010.8
20260906032247 92 257 0.0 1.0 0.00 0.00 0.00 33 1010.7
20260906032136 93 257 0.0 1.0 0.00 0.00 0.00 33 1010.7
20260906032038 93 257 0.0 1.0 0.00 0.00 0.00 33 1010.6
20260906031946 93 257 0.0 1.0 0.00 0.00 0.00 33 1010.6
20260906031832 93 257 0.0 1.0 0.00 0.00 0.00 33 1010.6
20260906031741 93 257 0.0 1.0 0.00 0.00 0.00 33 1010.6
20260906031644 93 257 0.0 1.0 0.00 0.00 0.00 33 1010.6
20260906031524 93 257 0.0 1.0 0.00 0.00 0.00 33 1010.6
20260906031434 93 257 0.0 1.0 0.00 0.00 0.00 33 1010.6
20260906031317 93 257 0.0 1.0 0.00 0.00 0.00 32 1010.6
20260906031223 93 257 0.0 1.0 0.00 0.00 0.00 33 1010.6
20260906031153 93 257 0.0 1.0 0.00 0.00 0.00 33 1010.6
20260906031054 93 257 0.0 1.0 0.00 0.00 0.00 33 1010.6
20260906030941 93 257 0.0 1.0 0.00 0.00 0.00 33 1010.6
20260906030844 93 257 0.0 2.0 0.00 0.00 0.00 32 1010.6
20260906030723 93 257 0.0 2.0 0.00 0.00 0.00 32 1010.6
20260906030634 93 257 0.0 2.0 0.00 0.00 0.00 32 1010.6
20260906030520 93 257 0.0 3.0 0.00 0.00 0.00 32 1010.6
20260906030441 93 257 0.0 3.0 0.00 0.00 0.00 32 1010.7
20260906030328 93 257 1.0 3.0 0.00 0.00 0.00 32 1010.6
20260906030230 93 257 1.0 3.0 0.00 0.00 0.00 32 1010.6
20260906030132 93 257 0.0 3.0 0.00 0.00 0.00 32 1010.6
20260906030031 93 257 0.0 3.0 0.00 0.00 0.00 32 1010.6
20260906025923 93 257 0.0 3.0 0.00 0.00 0.00 32 1010.7
20260906025827 93 257 0.0 3.0 0.00 0.00 0.00 32 1010.6
20260906025737 93 257 0.0 3.0 0.00 0.00 0.00 32 1010.6
20260906025619 93 257 0.0 2.0 0.00 0.00 0.00 32 1010.6
20260906025521 93 257 1.0 2.0 0.00 0.00 0.00 32 1010.6
20260906025430 93 257 0.0 2.0 0.00 0.00 0.00 32 1010.6
20260906025352 93 257 0.0 3.0 0.00 0.00 0.00 32 1010.6
20260906025240 93 257 0.0 4.0 0.00 0.00 0.00 32 1010.5
20260906025153 93 257 1.0 4.0 0.00 0.00 0.00 32 1010.5
20260906025034 94 257 1.0 4.0 0.00 0.00 0.00 32 1010.6
20260906024915 94 257 1.0 4.0 0.00 0.00 0.00 32 1010.5
20260906024845 94 257 1.0 6.0 0.00 0.00 0.00 31 1010.5
20260906024725 94 257 1.0 6.0 0.00 0.00 0.00 32 1010.5
20260906024655 94 257 1.0 6.0 0.00 0.00 0.00 32 1010.5
20260906024516 94 257 1.0 6.0 0.00 0.00 0.00 31 1010.4
20260906024355 94 257 1.0 6.0 0.00 0.00 0.00 32 1010.5
20260906024217 94 257 2.0 6.0 0.00 0.00 0.00 31 1010.4
20260906024119 94 257 2.0 6.0 0.00 0.00 0.00 32 1010.4
20260906024029 94 257 2.0 6.0 0.00 0.00 0.00 32 1010.4
20260906023930 94 257 1.0 6.0 0.00 0.00 0.00 32 1010.4
20260906023859 94 257 1.0 4.0 0.00 0.00 0.00 32 1010.4
20260906023724 94 257 1.0 4.0 0.00 0.00 0.00 31 1010.4
20260906023627 94 257 2.0 4.0 0.00 0.00 0.00 31 1010.4
20260906023527 94 257 2.0 4.0 0.00 0.00 0.00 31 1010.4
20260906023437 94 257 1.0 4.0 0.00 0.00 0.00 31 1010.4
20260906023320 94 257 1.0 4.0 0.00 0.00 0.00 31 1010.3
20260906023222 94 257 1.0 4.0 0.00 0.00 0.00 31 1010.2
20260906023136 94 257 1.0 4.0 0.00 0.00 0.00 31 1010.2
20260906023018 94 257 1.0 5.0 0.00 0.00 0.00 31 1010.3
20260906022920 95 257 1.0 5.0 0.00 0.00 0.00 31 1010.3
20260906022851 95 257 2.0 5.0 0.00 0.00 0.00 31 1010.3
20260906022732 95 257 1.0 5.0 0.00 0.00 0.00 31 1010.3
20260906022634 95 256 1.0 6.0 0.00 0.00 0.00 31 1010.3
20260906022518 95 256 2.0 6.0 0.00 0.00 0.00 31 1010.4
20260906022427 95 256 2.0 6.0 0.00 0.00 0.00 31 1010.4
20260906022330 95 254 2.0 6.0 0.00 0.00 0.00 31 1010.4
20260906022300 95 254 2.0 6.0 0.00 0.00 0.00 31 1010.3
20260906022121 95 253 1.0 6.0 0.00 0.00 0.00 30 1010.4
20260906022043 95 249 2.0 6.0 0.00 0.00 0.00 30 1010.3
20260906021951 95 249 3.0 6.0 0.00 0.00 0.00 30 1010.3
20260906021817 95 249 2.0 6.0 0.00 0.00 0.00 30 1010.4
20260906021727 95 248 1.0 5.0 0.00 0.00 0.00 30 1010.3
20260906021649 96 248 1.0 5.0 0.00 0.00 0.00 30 1010.4
20260906021536 96 248 1.0 5.0 0.00 0.00 0.00 30 1010.4
20260906021416 96 248 1.0 5.0 0.00 0.00 0.00 30 1010.4
20260906021317 96 248 1.0 5.0 0.00 0.00 0.00 30 1010.4
20260906021246 96 248 0.0 5.0 0.00 0.00 0.00 30 1010.5
20260906021133 96 248 1.0 5.0 0.00 0.00 0.00 30 1010.5
20260906021015 96 247 1.0 5.0 0.00 0.00 0.00 30 1010.4
20260906020925 96 247 1.0 5.0 0.00 0.00 0.00 30 1010.5
20260906020826 96 247 1.0 5.0 0.00 0.00 0.00 30 1010.4
20260906020728 96 247 1.0 5.0 0.00 0.00 0.00 30 1010.5
20260906020637 96 247 1.0 5.0 0.00 0.00 0.00 30 1010.4
20260906020516 96 247 1.0 6.0 0.00 0.00 0.00 30 1010.4
20260906020430 96 247 1.0 6.0 0.00 0.00 0.00 30 1010.4
20260906020333 96 247 1.0 6.0 0.00 0.00 0.00 30 1010.4
20260906020302 96 246 1.0 6.0 0.00 0.00 0.00 29 1010.4
20260906020122 96 246 2.0 6.0 0.00 0.00 0.00 29 1010.4
20260906020104 96 245 2.0 6.0 0.00 0.00 0.00 29 1010.4
20260906015933 96 245 2.0 6.0 0.00 0.00 0.00 29 1010.4
20260906015819 96 245 2.0 6.0 0.00 0.00 0.00 29 1010.4
20260906015721 96 245 2.0 6.0 0.00 0.00 0.00 29 1010.4
20260906015630 96 245 1.0 5.0 0.00 0.00 0.00 30 1010.4
20260906015533 96 245 0.0 6.0 0.00 0.00 0.00 29 1010.4
20260906015443 96 245 0.0 6.0 0.00 0.00 0.00 29 1010.3
20260906015317 96 245 1.0 6.0 0.00 0.00 0.00 29 1010.4
20260906015225 96 245 1.0 6.0 0.00 0.00 0.00 29 1010.4
20260906015139 96 245 1.0 6.0 0.00 0.00 0.00 29 1010.4
20260906015021 96 245 1.0 6.0 0.00 0.00 0.00 30 1010.4
20260906014922 96 245 2.0 6.0 0.00 0.00 0.00 29 1010.4
20260906014823 97 245 3.0 6.0 0.00 0.00 0.00 29 1010.4
20260906014733 97 244 3.0 6.0 0.00 0.00 0.00 29 1010.4
20260906014656 97 244 1.0 6.0 0.00 0.00 0.00 29 1010.4
20260906014526 97 244 1.0 6.0 0.00 0.00 0.00 29 1010.4
20260906014429 97 244 2.0 7.0 0.00 0.00 0.00 29 1010.4
20260906014330 97 244 3.0 7.0 0.00 0.00 0.00 29 1010.4
20260906014240 97 244 3.0 7.0 0.00 0.00 0.00 29 1010.3
20260906014122 97 244 1.0 7.0 0.00 0.00 0.00 29 1010.4
20260906014024 97 244 2.0 7.0 0.00 0.00 0.00 29 1010.4
20260906013931 97 244 2.0 7.0 0.00 0.00 0.00 29 1010.4
20260906013839 97 243 3.0 7.0 0.00 0.00 0.00 29 1010.4
20260906013722 97 243 3.0 7.0 0.00 0.00 0.00 29 1010.4
20260906013644 97 239 2.0 5.0 0.00 0.00 0.00 29 1010.4
20260906013534 97 239 2.0 6.0 0.00 0.00 0.00 29 1010.4
20260906013503 97 238 1.0 6.0 0.00 0.00 0.00 29 1010.4
20260906013316 97 238 1.0 7.0 0.00 0.00 0.00 29 1010.4
20260906013230 97 238 2.0 7.0 0.00 0.00 0.00 29 1010.4
20260906013132 97 238 1.0 7.0 0.00 0.00 0.00 29 1010.4
20260906013040 97 240 1.0 7.0 0.00 0.00 0.00 29 1010.4
20260906012922 97 240 1.0 7.0 0.00 0.00 0.00 29 1010.4
20260906012824 97 242 1.0 7.0 0.00 0.00 0.00 29 1010.4
20260906012734 98 242 2.0 7.0 0.00 0.00 0.00 28 1010.4
20260906012621 97 241 3.0 7.0 0.00 0.00 0.00 28 1010.5
20260906012523 98 242 3.0 8.0 0.00 0.00 0.00 28 1010.5
20260906012454 97 245 2.0 8.0 0.00 0.00 0.00 28 1010.5
20260906012335 97 246 1.0 8.0 0.00 0.00 0.00 28 1010.5
20260906012216 97 246 1.0 10.0 0.00 0.00 0.00 28 1010.6
20260906012119 97 246 2.0 10.0 0.00 0.00 0.00 28 1010.6
20260906012030 97 246 3.0 10.0 0.00 0.00 0.00 28 1010.6
20260906011932 97 247 3.0 10.0 0.00 0.00 0.00 28 1010.6
20260906011841 97 247 3.0 10.0 0.00 0.00 0.00 28 1010.6
20260906011723 98 249 3.0 10.0 0.00 0.00 0.00 28 1010.6
20260906011625 97 249 3.0 10.0 0.00 0.00 0.00 28 1010.7
20260906011527 97 249 4.0 10.0 0.00 0.00 0.00 29 1010.7
20260906011419 97 249 4.0 10.0 0.00 0.00 0.00 28 1010.7
20260906011320 97 248 3.0 8.0 0.00 0.00 0.00 28 1010.7
20260906011222 97 248 4.0 8.0 0.00 0.00 0.00 29 1010.6
20260906011133 97 248 3.0 8.0 0.00 0.00 0.00 29 1010.6
20260906011034 97 247 2.0 8.0 0.00 0.00 0.00 29 1010.6
20260906010916 97 247 1.0 8.0 0.00 0.00 0.00 29 1010.7
20260906010822 97 247 1.0 8.0 0.00 0.00 0.00 29 1010.6
20260906010733 97 247 2.0 9.0 0.00 0.00 0.00 29 1010.6
20260906010633 97 252 3.0 9.0 0.00 0.00 0.00 29 1010.6
20260906010516 97 256 3.0 9.0 0.00 0.00 0.00 29 1010.7
20260906010418 97 254 2.0 9.0 0.00 0.00 0.00 29 1010.6
20260906010327 97 254 3.0 9.0 0.00 0.00 0.00 29 1010.7
20260906010235 97 255 3.0 9.0 0.00 0.00 0.00 29 1010.7
20260906010204 97 255 3.0 9.0 0.00 0.00 0.00 29 1010.7
20260906010036 97 255 3.0 9.0 0.00 0.00 0.00 29 1010.6
20260906005954 97 257 3.0 9.0 0.00 0.00 0.00 29 1010.7
20260906005855 97 258 2.0 9.0 0.00 0.00 0.00 29 1010.6
20260906005743 97 257 1.0 8.0 0.00 0.00 0.00 29 1010.6
20260906005624 98 257 2.0 11.0 0.00 0.00 0.00 29 1010.5
20260906005526 98 257 3.0 11.0 0.00 0.00 0.00 29 1010.5
20260906005440 98 256 3.0 11.0 0.00 0.00 0.00 29 1010.5
20260906005322 98 263 3.0 11.0 0.00 0.00 0.00 28 1010.5
20260906005224 98 268 2.0 11.0 0.00 0.00 0.00 28 1010.5
20260906005125 98 269 3.0 11.0 0.00 0.00 0.00 28 1010.4
20260906005036 98 244 3.0 11.0 0.00 0.00 0.00 28 1010.4
20260906004921 98 244 5.0 11.0 0.00 0.00 0.00 28 1010.4
20260906004852 98 243 5.0 11.0 0.00 0.00 0.00 28 1010.4
20260906004732 98 240 3.0 8.0 0.00 0.00 0.00 28 1010.4
20260906004615 98 240 3.0 8.0 0.00 0.00 0.00 28 1010.5
20260906004517 98 242 3.0 8.0 0.00 0.00 0.00 28 1010.4
20260906004427 98 245 2.0 8.0 0.00 0.00 0.00 28 1010.5
20260906004330 98 244 1.0 8.0 0.00 0.00 0.00 29 1010.5
20260906004216 98 244 2.0 8.0 0.00 0.00 0.00 28 1010.4
20260906004118 98 244 3.0 8.0 0.00 0.00 0.00 28 1010.4
20260906004027 98 244 3.0 8.0 0.00 0.00 0.00 28 1010.4
20260906003929 98 244 2.0 8.0 0.00 0.00 0.00 28 1010.5
20260906003830 99 244 3.0 9.0 0.00 0.00 0.00 28 1010.5
20260906003740 98 244 3.0 9.0 0.00 0.00 0.00 28 1010.5
20260906003625 98 241 2.0 9.0 0.00 0.00 0.00 28 1010.5
20260906003527 99 238 2.0 9.0 0.00 0.00 0.00 28 1010.5
20260906003436 99 238 1.0 9.0 0.00 0.00 0.00 29 1010.5
20260906003319 99 237 2.0 9.0 0.00 0.00 0.00 28 1010.4
20260906003221 99 236 3.0 9.0 0.00 0.00 0.00 28 1010.5
20260906003130 99 236 4.0 11.0 0.00 0.00 0.00 28 1010.5
20260906003015 99 235 3.0 11.0 0.00 0.00 0.00 28 1010.5
20260906002924 99 235 2.0 11.0 0.00 0.00 0.00 28 1010.5
20260906002825 99 245 2.0 11.0 0.00 0.00 0.00 28 1010.5
20260906002755 99 247 3.0 11.0 0.00 0.00 0.00 28 1010.5
20260906002537 99 248 3.0 11.0 0.00 0.00 0.00 28 1010.5
20260906002439 99 249 4.0 11.0 0.00 0.00 0.00 28 1010.5
20260906002320 99 249 4.0 11.0 0.00 0.00 0.00 28 1010.4
20260906002234 99 250 3.0 11.0 0.00 0.00 0.00 28 1010.4
20260906002117 99 260 3.0 11.0 0.00 0.00 0.00 28 1010.5
20260906002020 99 265 3.0 11.0 0.00 0.00 0.00 28 1010.4
20260906001922 99 268 2.0 11.0 0.00 0.00 0.00 28 1010.3
20260906001831 99 265 3.0 11.0 0.00 0.00 0.00 28 1010.3
20260906001733 99 265 3.0 11.0 0.00 0.00 0.00 28 1010.3
20260906001619 99 243 3.0 11.0 0.00 0.00 0.00 28 1010.3
20260906001529 99 245 3.0 11.0 0.00 0.00 0.00 28 1010.3
20260906001430 99 245 3.0 11.0 0.00 0.00 0.00 28 1010.3
20260906001331 99 247 2.0 11.0 0.00 0.00 0.00 28 1010.3
20260906001222 99 247 4.0 11.0 0.00 0.00 0.00 28 1010.4
20260906001123 99 249 5.0 11.0 0.00 0.00 0.00 28 1010.4
20260906001035 99 250 3.0 8.0 0.00 0.00 0.00 28 1010.4
20260906000916 99 248 2.0 7.0 0.00 0.00 0.00 28 1010.5
20260906000819 100 248 2.0 6.0 0.00 0.00 0.00 28 1010.4
20260906000716 100 248 3.0 6.0 0.00 0.00 0.00 28 1010.5
20260906000618 100 248 2.0 6.0 0.00 0.00 0.00 27 1010.5
20260906000520 100 262 2.0 6.0 0.00 0.00 0.00 27 1010.5
20260906000430 100 259 2.0 6.0 0.00 0.00 0.00 27 1010.5
20260906000356 100 259 1.0 6.0 0.00 0.00 0.00 27 1010.4
20260906000242 100 258 1.0 6.0 0.00 0.00 0.00 27 1010.4
20260906000120 100 257 1.0 6.0 0.00 0.00 0.00 27 1010.5
20260906000034 100 257 1.0 6.0 0.00 0.00 0.00 27 1010.5
20260905235930 100 257 2.0 6.0 0.00 0.00 0.00 27 1010.4
20260905235832 100 257 1.0 6.0 0.00 0.00 0.00 27 1010.4
20260905235720 100 257 1.0 6.0 0.00 0.00 0.00 27 1010.5
20260905235626 100 257 1.0 6.0 0.00 0.00 0.00 27 1010.3
20260905235527 100 255 1.0 7.0 0.00 0.00 0.00 27 1010.4
20260905235438 100 255 1.0 8.0 0.00 0.00 0.00 27 1010.4
20260905235320 99 253 2.0 8.0 0.00 0.00 0.00 27 1010.4
20260905235222 99 254 2.0 8.0 0.00 0.00 0.00 27 1010.4
20260905235125 99 253 3.0 8.0 0.00 0.00 0.00 27 1010.4
20260905235037 99 255 1.0 8.0 0.00 0.00 0.00 27 1010.4
20260905234919 99 255 1.0 8.0 0.00 0.00 0.00 27 1010.5
20260905234820 99 255 2.0 8.0 0.00 0.00 0.00 27 1010.4
20260905234725 100 255 3.0 8.0 0.00 0.00 0.00 26 1010.4
20260905234627 100 255 2.0 8.0 0.00 0.00 0.00 26 1010.4
20260905234557 100 256 3.0 6.0 0.00 0.00 0.00 26 1010.4
20260905234442 100 257 2.0 6.0 0.00 0.00 0.00 26 1010.5
20260905234333 100 257 2.0 6.0 0.00 0.00 0.00 26 1010.4
20260905234240 100 257 2.0 8.0 0.00 0.00 0.00 26 1010.4
20260905234143 100 257 2.0 8.0 0.00 0.00 0.00 26 1010.4
20260905234112 100 255 2.0 8.0 0.00 0.00 0.00 26 1010.5
20260905233925 100 255 1.0 8.0 0.00 0.00 0.00 26 1010.5
20260905233827 100 255 2.0 8.0 0.00 0.00 0.00 26 1010.5
20260905233734 100 255 2.0 8.0 0.00 0.00 0.00 25 1010.5
20260905233615 101 255 2.0 8.0 0.00 0.00 0.00 25 1010.6
20260905233544 101 254 3.0 8.0 0.00 0.00 0.00 25 1010.6
20260905233434 101 252 3.0 8.0 0.00 0.00 0.00 25 1010.6
20260905233336 101 252 3.0 8.0 0.00 0.00 0.00 25 1010.6
20260905233219 101 246 2.0 8.0 0.00 0.00 0.00 25 1010.5
20260905233125 101 248 2.0 8.0 0.00 0.00 0.00 26 1010.5
20260905233035 101 248 2.0 8.0 0.00 0.00 0.00 25 1010.5
20260905232937 101 247 1.0 8.0 0.00 0.00 0.00 25 1010.5
20260905232818 101 247 1.0 8.0 0.00 0.00 0.00 26 1010.4
20260905232727 101 246 2.0 8.0 0.00 0.00 0.00 25 1010.4
20260905232647 101 246 3.0 8.0 0.00 0.00 0.00 25 1010.5
20260905232535 101 247 3.0 8.0 0.00 0.00 0.00 25 1010.5
20260905232421 101 250 2.0 7.0 0.00 0.00 0.00 25 1010.4
20260905232323 102 250 2.0 7.0 0.00 0.00 0.00 25 1010.5
20260905232254 102 249 2.0 8.0 0.00 0.00 0.00 25 1010.5
20260905232133 102 238 2.0 8.0 0.00 0.00 0.00 25 1010.5
20260905232016 102 235 2.0 8.0 0.00 0.00 0.00 25 1010.5
20260905231924 102 235 2.0 9.0 0.00 0.00 0.00 25 1010.5
20260905231830 102 234 3.0 9.0 0.00 0.00 0.00 25 1010.5
20260905231738 102 235 3.0 9.0 0.00 0.00 0.00 25 1010.5
20260905231619 102 234 2.0 11.0 0.00 0.00 0.00 25 1010.5
20260905231548 102 234 3.0 11.0 0.00 0.00 0.00 25 1010.5
20260905231429 101 240 4.0 11.0 0.00 0.00 0.00 25 1010.5
20260905231357 101 238 4.0 11.0 0.00 0.00 0.00 25 1010.5
20260905231218 101 233 5.0 11.0 0.00 0.00 0.00 25 1010.5
20260905231125 102 233 5.0 11.0 0.00 0.00 0.00 25 1010.5
20260905231026 102 217 5.0 11.0 0.00 0.00 0.00 25 1010.5
20260905230936 102 217 5.0 11.0 0.00 0.00 0.00 25 1010.5
20260905230819 102 217 5.0 11.0 0.00 0.00 0.00 24 1010.6
20260905230720 102 224 3.0 9.0 0.00 0.00 0.00 25 1010.6
20260905230629 103 263 3.0 9.0 0.00 0.00 0.00 24 1010.6
20260905230530 103 269 3.0 6.0 0.00 0.00 0.00 24 1010.7
20260905230416 103 271 2.0 8.0 0.00 0.00 0.00 24 1010.7
20260905230326 103 270 2.0 8.0 0.00 0.00 0.00 25 1010.8
20260905230227 103 271 2.0 8.0 0.00 0.00 0.00 24 1010.7
20260905230130 103 270 2.0 8.0 0.00 0.00 0.00 25 1010.7
20260905230030 103 270 2.0 11.0 0.00 0.00 0.00 24 1010.7
20260905225920 103 265 2.0 11.0 0.00 0.00 0.00 25 1010.7
20260905225826 102 265 2.0 11.0 0.00 0.00 0.00 25 1010.8
20260905225736 102 265 3.0 11.0 0.00 0.00 0.00 25 1010.8
20260905225619 102 266 3.0 11.0 0.00 0.00 0.00 25 1010.7
20260905225521 102 263 3.0 11.0 0.00 0.00 0.00 26 1010.7
20260905225423 102 264 3.0 11.0 0.00 0.00 0.00 26 1010.6
20260905225333 101 264 3.0 11.0 0.00 0.00 0.00 26 1010.6
20260905225219 101 264 4.0 11.0 0.00 0.00 0.00 26 1010.6
20260905225141 101 256 3.0 8.0 0.00 0.00 0.00 26 1010.7
20260905225049 101 257 3.0 10.0 0.00 0.00 0.00 26 1010.7
20260905224937 101 252 3.0 10.0 0.00 0.00 0.00 26 1010.6
20260905224818 101 257 2.0 10.0 0.00 0.00 0.00 26 1010.7
20260905224720 101 259 3.0 10.0 0.00 0.00 0.00 26 1010.6
20260905224630 101 262 2.0 10.0 0.00 0.00 0.00 26 1010.6
20260905224516 101 274 1.0 10.0 0.00 0.00 0.00 26 1010.7
20260905224419 101 275 2.0 10.0 0.00 0.00 0.00 26 1010.7
20260905224322 100 275 3.0 10.0 0.00 0.00 0.00 26 1010.7
20260905224230 100 273 4.0 10.0 0.00 0.00 0.00 26 1010.7
20260905224133 100 271 3.0 8.0 0.00 0.00 0.00 26 1010.7
20260905224019 100 269 2.0 9.0 0.00 0.00 0.00 26 1010.7
20260905223921 100 273 2.0 9.0 0.00 0.00 0.00 26 1010.7
20260905223832 100 273 3.0 9.0 0.00 0.00 0.00 26 1010.7
20260905223715 101 274 4.0 9.0 0.00 0.00 0.00 25 1010.8
20260905223617 101 276 3.0 9.0 0.00 0.00 0.00 25 1010.8
20260905223525 101 278 3.0 9.0 0.00 0.00 0.00 25 1010.7
20260905223427 101 280 4.0 9.0 0.00 0.00 0.00 25 1010.8
20260905223342 101 280 3.0 9.0 0.00 0.00 0.00 25 1010.8
20260905223224 101 285 2.0 8.0 0.00 0.00 0.00 25 1010.8
20260905223126 101 287 2.0 8.0 0.00 0.00 0.00 26 1010.8
20260905223026 101 284 2.0 8.0 0.00 0.00 0.00 25 1010.8
20260905222934 101 282 3.0 8.0 0.00 0.00 0.00 25 1010.8
20260905222836 101 282 2.0 8.0 0.00 0.00 0.00 25 1010.8
20260905222723 101 283 2.0 7.0 0.00 0.00 0.00 25 1010.8
20260905222636 101 283 2.0 7.0 0.00 0.00 0.00 25 1010.8
20260905222517 101 284 3.0 7.0 0.00 0.00 0.00 25 1010.9
20260905222420 101 285 2.0 8.0 0.00 0.00 0.00 25 1011.0
20260905222321 101 285 2.0 8.0 0.00 0.00 0.00 25 1011.0
20260905222232 101 285 2.0 8.0 0.00 0.00 0.00 25 1011.0
20260905222134 101 285 2.0 8.0 0.00 0.00 0.00 25 1010.9
20260905222040 101 286 1.0 8.0 0.00 0.00 0.00 25 1011.1
20260905221928 101 286 2.0 8.0 0.00 0.00 0.00 25 1011.1
20260905221830 101 285 2.0 8.0 0.00 0.00 0.00 25 1011.0
20260905221732 101 285 2.0 8.0 0.00 0.00 0.00 25 1011.1
20260905221640 101 285 3.0 8.0 0.00 0.00 0.00 25 1011.0
20260905221521 101 284 2.0 8.0 0.00 0.00 0.00 24 1011.1
20260905221429 102 283 1.0 7.0 0.00 0.00 0.00 25 1011.1
20260905221337 102 283 2.0 7.0 0.00 0.00 0.00 25 1011.1
20260905221240 102 281 3.0 9.0 0.00 0.00 0.00 24 1011.1
20260905221119 102 281 3.0 9.0 0.00 0.00 0.00 25 1011.0
20260905221030 102 281 2.0 9.0 0.00 0.00 0.00 24 1011.0
20260905220933 102 281 2.0 9.0 0.00 0.00 0.00 25 1011.0
20260905220902 102 281 2.0 9.0 0.00 0.00 0.00 25 1010.9
20260905220747 102 280 1.0 9.0 0.00 0.00 0.00 25 1011.0
20260905220628 102 279 1.0 9.0 0.00 0.00 0.00 25 1011.0
20260905220536 102 279 3.0 10.0 0.00 0.00 0.00 25 1011.0
20260905220418 102 278 2.0 11.0 0.00 0.00 0.00 24 1011.0
20260905220345 102 278 2.0 11.0 0.00 0.00 0.00 25 1011.0
20260905220225 102 280 2.0 11.0 0.00 0.00 0.00 24 1011.0
20260905220154 103 280 1.0 11.0 0.00 0.00 0.00 26 1011.0
20260905220029 103 279 2.0 11.0 0.00 0.00 0.00 25 1011.0
20260905215947 103 277 2.0 11.0 0.00 0.00 0.00 24 1011.1
20260905215829 103 276 3.0 11.0 0.00 0.00 0.00 25 1011.1
20260905215730 102 276 4.0 11.0 0.00 0.00 0.00 24 1011.1
20260905215640 103 270 4.0 11.0 0.00 0.00 0.00 24 1011.1
20260905215543 102 249 2.0 6.0 0.00 0.00 0.00 25 1011.1
20260905215451 102 249 1.0 6.0 0.00 0.00 0.00 26 1011.1
20260905215316 102 249 1.0 6.0 0.00 0.00 0.00 25 1011.2
20260905215219 102 248 2.0 7.0 0.00 0.00 0.00 25 1011.2
20260905215129 102 248 2.0 7.0 0.00 0.00 0.00 25 1011.2
20260905215031 102 248 2.0 7.0 0.00 0.00 0.00 25 1011.1
20260905214933 102 253 2.0 7.0 0.00 0.00 0.00 25 1011.2
20260905214815 102 254 2.0 7.0 0.00 0.00 0.00 25 1011.2
20260905214729 102 262 1.0 7.0 0.00 0.00 0.00 26 1011.2
20260905214631 102 262 2.0 7.0 0.00 0.00 0.00 24 1011.2
20260905214533 102 262 3.0 7.0 0.00 0.00 0.00 25 1011.1
20260905214415 102 262 3.0 7.0 0.00 0.00 0.00 24 1011.2
20260905214324 103 266 2.0 6.0 0.00 0.00 0.00 25 1011.3
20260905214226 102 269 2.0 7.0 0.00 0.00 0.00 25 1011.2
20260905214132 102 270 1.0 7.0 0.00 0.00 0.00 25 1011.2
20260905214041 102 273 1.0 7.0 0.00 0.00 0.00 25 1011.2
20260905213923 102 273 0.0 7.0 0.00 0.00 0.00 26 1011.2
20260905213822 102 273 1.0 7.0 0.00 0.00 0.00 24 1011.3
20260905213731 102 273 2.0 7.0 0.00 0.00 0.00 25 1011.3
20260905213630 102 273 2.0 7.0 0.00 0.00 0.00 25 1011.3
20260905213540 102 273 2.0 9.0 0.00 0.00 0.00 26 1011.3
20260905213445 102 273 2.0 9.0 0.00 0.00 0.00 25 1011.3
20260905213355 103 270 2.0 9.0 0.00 0.00 0.00 25 1011.3
20260905213216 103 268 1.0 9.0 0.00 0.00 0.00 25 1011.3
20260905213118 102 266 1.0 9.0 0.00 0.00 0.00 26 1011.3
20260905213026 102 262 2.0 9.0 0.00 0.00 0.00 25 1011.3
20260905212929 103 262 2.0 9.0 0.00 0.00 0.00 25 1011.3
20260905212829 102 263 2.0 9.0 0.00 0.00 0.00 26 1011.4
20260905212720 102 262 2.0 9.0 0.00 0.00 0.00 25 1011.3
20260905212640 102 262 2.0 6.0 0.00 0.00 0.00 25 1011.4
20260905212550 103 286 1.0 6.0 0.00 0.00 0.00 25 1011.4
20260905212457 103 287 1.0 6.0 0.00 0.00 0.00 25 1011.4
20260905212318 103 287 1.0 6.0 0.00 0.00 0.00 24 1011.5
20260905212220 103 287 1.0 6.0 0.00 0.00 0.00 25 1011.5
20260905212125 103 287 1.0 6.0 0.00 0.00 0.00 25 1011.5
20260905212027 103 287 1.0 6.0 0.00 0.00 0.00 25 1011.5
20260905211939 103 286 1.0 8.0 0.00 0.00 0.00 27 1011.6
20260905211848 103 285 1.0 8.0 0.00 0.00 0.00 26 1011.5
20260905211750 103 284 0.0 8.0 0.00 0.00 0.00 25 1011.5
20260905211637 104 284 0.0 8.0 0.00 0.00 0.00 24 1011.7
20260905211520 105 284 1.0 8.0 0.00 0.00 0.00 24 1011.8
20260905211422 105 284 1.0 8.0 0.00 0.00 0.00 25 1011.7
20260905211325 105 284 1.0 8.0 0.00 0.00 0.00 24 1011.7
20260905211217 104 282 2.0 8.0 0.00 0.00 0.00 25 1011.7
20260905211119 103 282 2.0 8.0 0.00 0.00 0.00 25 1011.7
20260905211020 103 281 1.0 2.0 0.00 0.00 0.00 24 1011.7
20260905210929 103 281 1.0 2.0 0.00 0.00 0.00 24 1011.7
20260905210851 103 281 1.0 2.0 0.00 0.00 0.00 26 1011.7
20260905210739 103 281 0.0 2.0 0.00 0.00 0.00 26 1011.8
20260905210621 102 281 0.0 2.0 0.00 0.00 0.00 27 1011.8
20260905210529 101 281 0.0 2.0 0.00 0.00 0.00 27 1011.8
20260905210438 101 281 0.0 2.0 0.00 0.00 0.00 28 1011.7
20260905210320 101 281 0.0 2.0 0.00 0.00 0.00 27 1011.8
20260905210222 100 281 0.0 4.0 0.00 0.00 0.00 27 1011.8
20260905210124 100 281 0.0 4.0 0.00 0.00 0.00 26 1011.8
20260905210047 100 281 0.0 4.0 0.00 0.00 0.00 26 1011.8
20260905205940 100 281 0.0 4.0 0.00 0.00 0.00 27 1011.8
20260905205831 101 281 0.0 4.0 0.00 0.00 0.00 27 1011.8
20260905205731 101 281 1.0 4.0 0.00 0.00 0.00 27 1011.8
20260905205634 101 281 1.0 4.0 0.00 0.00 0.00 26 1011.9
20260905205516 101 281 1.0 4.0 0.00 0.00 0.00 26 1011.9
20260905205425 101 281 1.0 4.0 0.00 0.00 0.00 27 1011.9
20260905205330 101 281 1.0 4.0 0.00 0.00 0.00 27 1011.9
20260905205234 101 281 1.0 4.0 0.00 0.00 0.00 26 1011.8
20260905205141 101 281 1.0 4.0 0.00 0.00 0.00 28 1011.8
20260905205021 101 281 1.0 4.0 0.00 0.00 0.00 26 1011.9
20260905204923 101 281 1.0 4.0 0.00 0.00 0.00 27 1011.9
20260905204833 101 281 1.0 4.0 0.00 0.00 0.00 26 1011.9
20260905204718 101 281 1.0 5.0 0.00 0.00 0.00 26 1011.9
20260905204619 101 281 2.0 5.0 0.00 0.00 0.00 27 1012.0
20260905204529 101 281 1.0 5.0 0.00 0.00 0.00 26 1012.0
20260905204430 102 281 1.0 5.0 0.00 0.00 0.00 27 1012.0
20260905204333 102 281 1.0 5.0 0.00 0.00 0.00 27 1012.0
20260905204214 102 281 1.0 5.0 0.00 0.00 0.00 26 1012.2
20260905204129 102 281 1.0 5.0 0.00 0.00 0.00 27 1012.2
20260905204031 102 281 1.0 5.0 0.00 0.00 0.00 26 1012.1
20260905203942 102 281 1.0 5.0 0.00 0.00 0.00 26 1012.2
20260905203825 102 281 2.0 5.0 0.00 0.00 0.00 26 1012.2
20260905203727 102 280 2.0 5.0 0.00 0.00 0.00 26 1012.2
20260905203629 103 276 2.0 5.0 0.00 0.00 0.00 26 1012.2
20260905203543 103 273 2.0 5.0 0.00 0.00 0.00 27 1012.2
20260905203422 102 266 1.0 5.0 0.00 0.00 0.00 26 1012.3
20260905203324 102 262 1.0 7.0 0.00 0.00 0.00 27 1012.3
20260905203233 102 262 1.0 7.0 0.00 0.00 0.00 26 1012.3
20260905203155 102 262 1.0 7.0 0.00 0.00 0.00 26 1012.3
20260905203043 102 262 2.0 7.0 0.00 0.00 0.00 27 1012.3
20260905202923 102 259 2.0 7.0 0.00 0.00 0.00 27 1012.3
20260905202830 102 259 1.0 7.0 0.00 0.00 0.00 26 1012.3
20260905202716 102 255 1.0 7.0 0.00 0.00 0.00 26 1012.4
20260905202618 102 255 1.0 7.0 0.00 0.00 0.00 26 1012.4
20260905202519 102 255 1.0 5.0 0.00 0.00 0.00 27 1012.4
20260905202430 103 255 1.0 5.0 0.00 0.00 0.00 26 1012.4
20260905202331 103 257 1.0 5.0 0.00 0.00 0.00 27 1012.4
20260905202231 103 257 1.0 5.0 0.00 0.00 0.00 26 1012.4
20260905202124 103 260 1.0 5.0 0.00 0.00 0.00 27 1012.4
20260905202026 103 260 2.0 5.0 0.00 0.00 0.00 26 1012.5
20260905201955 103 260 2.0 6.0 0.00 0.00 0.00 26 1012.5
20260905201837 103 260 2.0 6.0 0.00 0.00 0.00 26 1012.4
20260905201719 103 260 2.0 6.0 0.00 0.00 0.00 29 1012.4
20260905201629 103 258 2.0 7.0 0.00 0.00 0.00 27 1012.4
20260905201516 102 257 2.0 7.0 0.00 0.00 0.00 28 1012.5
20260905201417 102 233 1.0 8.0 0.00 0.00 0.00 30 1012.5
20260905201325 101 233 1.0 8.0 0.00 0.00 0.00 27 1012.5
20260905201226 102 233 2.0 8.0 0.00 0.00 0.00 27 1012.4
20260905201127 102 233 2.0 8.0 0.00 0.00 0.00 27 1012.4
20260905201036 102 233 3.0 8.0 0.00 0.00 0.00 27 1012.5
20260905200916 103 233 4.0 8.0 0.00 0.00 0.00 27 1012.5
20260905200850 103 232 3.0 8.0 0.00 0.00 0.00 27 1012.5
20260905200729 103 230 3.0 8.0 0.00 0.00 0.00 27 1012.6
20260905200639 103 230 3.0 8.0 0.00 0.00 0.00 27 1012.5
20260905200521 103 229 1.0 5.0 0.00 0.00 0.00 28 1012.5
20260905200422 102 229 0.0 5.0 0.00 0.00 0.00 28 1012.4
20260905200352 102 229 0.0 5.0 0.00 0.00 0.00 29 1012.4
20260905200216 101 229 0.0 5.0 0.00 0.00 0.00 29 1012.5
20260905200137 101 229 1.0 5.0 0.00 0.00 0.00 28 1012.5
20260905200037 101 229 2.0 5.0 0.00 0.00 0.00 29 1012.5
20260905195935 101 229 2.0 5.0 0.00 0.00 0.00 29 1012.5
20260905195818 100 232 1.0 6.0 0.00 0.00 0.00 29 1012.5
20260905195720 100 232 1.0 9.0 0.00 0.00 0.00 29 1012.5
20260905195651 101 232 1.0 9.0 0.00 0.00 0.00 28 1012.5
20260905195515 101 232 1.0 9.0 0.00 0.00 0.00 28 1012.5
20260905195416 101 232 1.0 9.0 0.00 0.00 0.00 29 1012.6
20260905195326 101 232 2.0 9.0 0.00 0.00 0.00 29 1012.6
20260905195228 101 232 3.0 9.0 0.00 0.00 0.00 28 1012.6
20260905195129 101 232 4.0 9.0 0.00 0.00 0.00 29 1012.6
20260905195039 101 232 4.0 9.0 0.00 0.00 0.00 28 1012.6
20260905194921 102 233 4.0 9.0 0.00 0.00 0.00 28 1012.6
20260905194848 102 237 3.0 9.0 0.00 0.00 0.00 29 1012.7
20260905194736 101 237 3.0 9.0 0.00 0.00 0.00 29 1012.7
20260905194619 101 237 3.0 9.0 0.00 0.00 0.00 30 1012.6
20260905194519 100 237 2.0 9.0 0.00 0.00 0.00 30 1012.6
20260905194450 100 245 0.0 4.0 0.00 0.00 0.00 30 1012.6
20260905194330 100 245 0.0 4.0 0.00 0.00 0.00 30 1012.7
20260905194225 99 246 0.0 4.0 0.00 0.00 0.00 30 1012.7
20260905194117 99 246 0.0 4.0 0.00 0.00 0.00 30 1012.7
20260905194019 100 246 1.0 4.0 0.00 0.00 0.00 30 1012.8
20260905193921 100 137 2.0 4.0 0.00 0.00 0.00 29 1012.8
20260905193852 100 137 2.0 4.0 0.00 0.00 0.00 30 1012.8
20260905193738 100 137 2.0 4.0 0.00 0.00 0.00 29 1012.9
20260905193619 100 137 2.0 4.0 0.00 0.00 0.00 30 1012.9
20260905193520 100 137 1.0 5.0 0.00 0.00 0.00 30 1012.9
20260905193434 99 137 1.0 5.0 0.00 0.00 0.00 30 1012.9
20260905193317 99 137 2.0 5.0 0.00 0.00 0.00 30 1012.9
20260905193218 99 135 2.0 5.0 0.00 0.00 0.00 30 1012.9
20260905193126 100 135 2.0 5.0 0.00 0.00 0.00 30 1012.8
20260905193029 100 134 1.0 5.0 0.00 0.00 0.00 30 1012.8
20260905192931 100 134 2.0 5.0 0.00 0.00 0.00 30 1012.9
20260905192817 100 134 3.0 5.0 0.00 0.00 0.00 29 1012.8
20260905192747 100 134 3.0 5.0 0.00 0.00 0.00 30 1012.9
20260905192632 100 136 3.0 5.0 0.00 0.00 0.00 29 1012.9
20260905192601 100 141 3.0 5.0 0.00 0.00 0.00 30 1012.7
20260905192422 99 141 1.0 4.0 0.00 0.00 0.00 30 1012.8
20260905192343 99 141 0.0 3.0 0.00 0.00 0.00 30 1012.8
20260905192233 99 141 1.0 3.0 0.00 0.00 0.00 30 1012.8
20260905192134 99 141 1.0 3.0 0.00 0.00 0.00 30 1012.9
20260905192018 99 141 0.0 1.0 0.00 0.00 0.00 30 1012.9
20260905191928 99 141 0.0 1.0 0.00 0.00 0.00 30 1012.9
20260905191830 99 141 0.0 1.0 0.00 0.00 0.00 30 1013.0
20260905191732 99 141 0.0 0.0 0.00 0.00 0.00 29 1013.0
20260905191640 100 141 0.0 0.0 0.00 0.00 0.00 29 1013.0
20260905191523 100 141 0.0 0.0 0.00 0.00 0.00 29 1013.0
20260905191427 100 139 0.0 1.0 0.00 0.00 0.00 29 1013.0
20260905191315 100 139 0.0 1.0 0.00 0.00 0.00 31 1013.0
20260905191244 100 139 0.0 1.0 0.00 0.00 0.00 30 1013.0
20260905191126 100 139 0.0 4.0 0.00 0.00 0.00 30 1013.1
20260905191026 100 139 0.0 4.0 0.00 0.00 0.00 30 1013.1
20260905190936 99 139 0.0 4.0 0.00 0.00 0.00 31 1013.1
20260905190839 99 139 0.0 5.0 0.00 0.00 0.00 31 1013.1
20260905190724 99 138 0.0 5.0 0.00 0.00 0.00 32 1013.2
20260905190635 99 139 0.0 5.0 0.00 0.00 0.00 32 1013.2
20260905190517 98 187 0.0 5.0 0.00 0.00 0.00 33 1013.3
20260905190417 98 178 2.0 5.0 0.00 0.00 0.00 31 1013.3
20260905190326 98 178 3.0 5.0 0.00 0.00 0.00 31 1013.3
20260905190229 98 178 2.0 5.0 0.00 0.00 0.00 31 1013.3
20260905190137 98 178 2.0 5.0 0.00 0.00 0.00 31 1013.4
20260905190035 98 178 1.0 5.0 0.00 0.00 0.00 31 1013.4
20260905185926 98 178 1.0 5.0 0.00 0.00 0.00 32 1013.5
20260905185856 98 178 1.0 5.0 0.00 0.00 0.00 31 1013.5
20260905185717 98 178 2.0 5.0 0.00 0.00 0.00 32 1013.5
20260905185618 98 178 3.0 5.0 0.00 0.00 0.00 31 1013.6
20260905185529 98 178 3.0 5.0 0.00 0.00 0.00 31 1013.6
20260905185451 99 177 3.0 5.0 0.00 0.00 0.00 31 1013.6
20260905185317 99 176 2.0 5.0 0.00 0.00 0.00 32 1013.6
20260905185226 98 176 1.0 5.0 0.00 0.00 0.00 32 1013.6
20260905185129 98 177 2.0 5.0 0.00 0.00 0.00 32 1013.7
20260905185037 98 177 3.0 5.0 0.00 0.00 0.00 31 1013.8
20260905184919 98 178 1.0 5.0 0.00 0.00 0.00 33 1013.7
20260905184822 97 197 0.0 5.0 0.00 0.00 0.00 33 1013.7
20260905184736 97 198 0.0 5.0 0.00 0.00 0.00 32 1013.7
20260905184639 97 198 2.0 5.0 0.00 0.00 0.00 33 1013.8
20260905184518 97 198 2.0 5.0 0.00 0.00 0.00 32 1013.7
20260905184429 97 198 2.0 5.0 0.00 0.00 0.00 33 1013.7
20260905184350 97 197 2.0 5.0 0.00 0.00 0.00 32 1013.7
20260905184238 98 197 1.0 4.0 0.00 0.00 0.00 33 1013.8
20260905184118 98 197 2.0 4.0 0.00 0.00 0.00 33 1013.8
20260905184024 98 207 3.0 4.0 0.00 0.00 0.00 35 1013.7
20260905183934 97 207 2.0 4.0 0.00 0.00 0.00 32 1013.7
20260905183837 97 207 1.0 4.0 0.00 0.00 0.00 33 1013.7
20260905183717 97 207 1.0 4.0 0.00 0.00 0.00 33 1013.7
20260905183626 97 207 1.0 4.0 0.00 0.00 0.00 33 1013.7
20260905183529 97 207 1.0 4.0 0.00 0.00 0.00 33 1013.7
20260905183422 97 207 0.0 3.0 0.00 0.00 0.00 34 1013.7
20260905183343 96 207 0.0 3.0 0.00 0.00 0.00 34 1013.7
20260905183233 97 207 1.0 3.0 0.00 0.00 0.00 33 1013.7
20260905183135 97 207 1.0 3.0 0.00 0.00 0.00 33 1013.7
20260905183017 97 209 1.0 3.0 0.00 0.00 0.00 33 1013.7
20260905182919 97 209 0.0 3.0 0.00 0.00 0.00 34 1013.7
20260905182827 97 209 1.0 5.0 0.00 0.00 0.00 34 1013.8
20260905182733 97 209 1.0 6.0 0.00 0.00 0.00 33 1013.8
20260905182642 97 210 1.0 6.0 0.00 0.00 0.00 36 1013.8
20260905182543 96 210 1.0 6.0 0.00 0.00 0.00 34 1013.9
20260905182431 96 210 1.0 6.0 0.00 0.00 0.00 33 1013.9
20260905182332 96 210 1.0 6.0 0.00 0.00 0.00 34 1013.9
20260905182301 96 210 1.0 6.0 0.00 0.00 0.00 33 1013.9
20260905182142 96 210 2.0 6.0 0.00 0.00 0.00 34 1013.9
20260905182052 96 211 2.0 6.0 0.00 0.00 0.00 34 1013.9
20260905181939 96 211 3.0 6.0 0.00 0.00 0.00 34 1013.9
20260905181822 96 216 3.0 6.0 0.00 0.00 0.00 33 1014.0
20260905181724 96 217 2.0 5.0 0.00 0.00 0.00 33 1014.0
20260905181653 96 217 2.0 4.0 0.00 0.00 0.00 33 1014.0
20260905181535 96 217 2.0 4.0 0.00 0.00 0.00 33 1013.9
20260905181417 96 207 2.0 4.0 0.00 0.00 0.00 33 1013.9
20260905181345 96 207 2.0 4.0 0.00 0.00 0.00 34 1014.0
20260905181227 96 207 2.0 4.0 0.00 0.00 0.00 34 1014.0
20260905181141 96 207 1.0 4.0 0.00 0.00 0.00 35 1014.0
20260905181040 95 207 1.0 5.0 0.00 0.00 0.00 35 1013.9
20260905180921 95 207 1.0 5.0 0.00 0.00 0.00 34 1013.9
20260905180830 95 207 2.0 5.0 0.00 0.00 0.00 34 1013.9
20260905180733 95 207 2.0 5.0 0.00 0.00 0.00 35 1013.9
20260905180642 95 208 1.0 5.0 0.00 0.00 0.00 34 1013.9
20260905180526 95 208 1.0 5.0 0.00 0.00 0.00 35 1014.0
20260905180429 95 208 1.0 5.0 0.00 0.00 0.00 35 1014.0
20260905180331 95 208 1.0 5.0 0.00 0.00 0.00 35 1014.0
20260905180241 95 208 0.0 4.0 0.00 0.00 0.00 36 1014.0
20260905180123 95 208 0.0 4.0 0.00 0.00 0.00 36 1014.1
20260905180038 95 208 0.0 4.0 0.00 0.00 0.00 36 1014.1
20260905175940 95 208 1.0 4.0 0.00 0.00 0.00 35 1014.1
20260905175819 95 208 2.0 4.0 0.00 0.00 0.00 36 1014.2
20260905175721 95 208 3.0 4.0 0.00 0.00 0.00 36 1014.1
20260905175651 95 208 3.0 4.0 0.00 0.00 0.00 36 1014.1
20260905175533 95 208 2.0 4.0 0.00 0.00 0.00 35 1014.2
20260905175414 95 208 1.0 4.0 0.00 0.00 0.00 35 1014.1
20260905175329 95 208 1.0 4.0 0.00 0.00 0.00 36 1014.1
20260905175231 95 208 1.0 4.0 0.00 0.00 0.00 36 1014.2
20260905175132 95 208 1.0 4.0 0.00 0.00 0.00 36 1014.1
20260905175037 95 208 1.0 4.0 0.00 0.00 0.00 37 1014.2
20260905174950 94 208 1.0 4.0 0.00 0.00 0.00 36 1014.2
20260905174837 94 208 1.0 4.0 0.00 0.00 0.00 37 1014.1
20260905174717 94 208 1.0 4.0 0.00 0.00 0.00 37 1014.1
20260905174647 94 208 1.0 4.0 0.00 0.00 0.00 37 1014.0
20260905174553 94 213 1.0 4.0 0.00 0.00 0.00 37 1014.0
20260905174440 94 213 2.0 4.0 0.00 0.00 0.00 37 1014.0
20260905174321 94 213 2.0 4.0 0.00 0.00 0.00 38 1014.0
20260905174252 94 213 2.0 4.0 0.00 0.00 0.00 37 1014.0
20260905174133 94 213 1.0 4.0 0.00 0.00 0.00 38 1014.1
20260905174042 93 213 1.0 4.0 0.00 0.00 0.00 38 1014.1
20260905173923 93 213 1.0 4.0 0.00 0.00 0.00 38 1014.0
20260905173832 93 213 2.0 4.0 0.00 0.00 0.00 38 1014.0
20260905173737 93 213 1.0 4.0 0.00 0.00 0.00 38 1014.1
20260905173646 93 213 1.0 4.0 0.00 0.00 0.00 38 1014.1
20260905173546 93 213 1.0 4.0 0.00 0.00 0.00 39 1014.1
20260905173435 93 213 1.0 3.0 0.00 0.00 0.00 39 1014.1
20260905173318 93 213 1.0 3.0 0.00 0.00 0.00 38 1014.1
20260905173220 93 213 1.0 3.0 0.00 0.00 0.00 38 1014.1
20260905173122 93 215 1.0 3.0 0.00 0.00 0.00 39 1014.1
20260905173017 93 215 1.0 3.0 0.00 0.00 0.00 38 1014.1
20260905172918 93 217 1.0 3.0 0.00 0.00 0.00 40 1014.0
20260905172820 92 231 1.0 3.0 0.00 0.00 0.00 40 1014.1
20260905172750 92 231 1.0 3.0 0.00 0.00 0.00 39 1014.1
20260905172658 92 231 1.0 3.0 0.00 0.00 0.00 39 1014.1
20260905172519 92 231 1.0 3.0 0.00 0.00 0.00 39 1014.1
20260905172426 92 231 1.0 3.0 0.00 0.00 0.00 39 1014.1
20260905172329 92 231 1.0 3.0 0.00 0.00 0.00 40 1014.1
20260905172237 92 231 1.0 3.0 0.00 0.00 0.00 40 1014.1
20260905172120 92 231 1.0 3.0 0.00 0.00 0.00 40 1014.0
20260905172022 92 231 0.0 3.0 0.00 0.00 0.00 39 1013.9
20260905171921 92 231 1.0 3.0 0.00 0.00 0.00 39 1014.0
20260905171835 92 231 1.0 3.0 0.00 0.00 0.00 40 1014.0
20260905171715 92 231 1.0 3.0 0.00 0.00 0.00 40 1014.0
20260905171618 92 231 1.0 3.0 0.00 0.00 0.00 40 1014.0
20260905171520 92 231 1.0 3.0 0.00 0.00 0.00 40 1014.0
20260905171451 92 246 0.0 2.0 0.00 0.00 0.00 40 1014.0
20260905171332 91 257 0.0 2.0 0.00 0.00 0.00 40 1014.1
20260905171226 92 257 0.0 2.0 0.00 0.00 0.00 40 1014.1
20260905171126 92 257 0.0 3.0 0.00 0.00 0.00 40 1014.1
20260905171028 92 257 0.0 3.0 0.00 0.00 0.00 40 1014.1
20260905170937 91 257 0.0 3.0 0.00 0.00 0.00 40 1014.1
20260905170819 91 257 0.0 3.0 0.00 0.00 0.00 40 1014.1
20260905170720 91 257 0.0 3.0 0.00 0.00 0.00 40 1014.0
20260905170651 91 257 0.0 3.0 0.00 0.00 0.00 40 1014.0
20260905170517 91 257 0.0 3.0 0.00 0.00 0.00 40 1014.0
20260905170419 91 257 1.0 3.0 0.00 0.00 0.00 40 1013.9
20260905170348 91 257 1.0 3.0 0.00 0.00 0.00 40 1013.9
20260905170250 91 257 0.0 2.0 0.00 0.00 0.00 40 1013.9
20260905170137 91 257 0.0 2.0 0.00 0.00 0.00 40 1014.0
20260905170030 91 257 1.0 2.0 0.00 0.00 0.00 41 1013.9
20260905165924 91 257 1.0 2.0 0.00 0.00 0.00 40 1013.9
20260905165854 91 257 1.0 2.0 0.00 0.00 0.00 40 1013.9
20260905165735 91 257 0.0 1.0 0.00 0.00 0.00 41 1013.9
20260905165617 91 257 0.0 1.0 0.00 0.00 0.00 41 1013.9
20260905165526 91 257 0.0 1.0 0.00 0.00 0.00 41 1013.8
20260905165445 91 257 0.0 1.0 0.00 0.00 0.00 41 1013.8
20260905165334 91 257 0.0 1.0 0.00 0.00 0.00 41 1013.8
20260905165220 91 257 0.0 1.0 0.00 0.00 0.00 40 1013.8
20260905165140 91 257 0.0 1.0 0.00 0.00 0.00 41 1013.8
20260905165029 91 257 0.0 1.0 0.00 0.00 0.00 41 1013.8
20260905164932 91 257 0.0 1.0 0.00 0.00 0.00 41 1013.8
20260905164833 91 257 0.0 2.0 0.00 0.00 0.00 41 1013.8
20260905164714 91 257 0.0 3.0 0.00 0.00 0.00 41 1013.8
20260905164630 91 257 0.0 3.0 0.00 0.00 0.00 41 1013.8
20260905164529 91 257 0.0 3.0 0.00 0.00 0.00 42 1013.9
20260905164439 90 257 0.0 3.0 0.00 0.00 0.00 41 1013.9
20260905164340 90 257 0.0 3.0 0.00 0.00 0.00 41 1014.0
20260905164223 90 257 0.0 3.0 0.00 0.00 0.00 41 1014.0
20260905164124 90 257 0.0 3.0 0.00 0.00 0.00 41 1014.0
20260905164038 90 257 1.0 3.0 0.00 0.00 0.00 42 1014.0
20260905163921 90 257 1.0 3.0 0.00 0.00 0.00 41 1014.0
20260905163824 90 257 1.0 2.0 0.00 0.00 0.00 41 1013.9
20260905163725 90 257 1.0 2.0 0.00 0.00 0.00 42 1014.0
20260905163635 90 257 1.0 2.0 0.00 0.00 0.00 42 1014.0
20260905163518 90 257 1.0 2.0 0.00 0.00 0.00 42 1013.9
20260905163424 90 257 1.0 2.0 0.00 0.00 0.00 42 1014.0
20260905163355 90 257 0.0 3.0 0.00 0.00 0.00 42 1014.0
20260905163215 90 257 0.0 3.0 0.00 0.00 0.00 42 1013.9
20260905163117 90 257 0.0 3.0 0.00 0.00 0.00 42 1013.8
20260905163046 90 257 0.0 3.0 0.00 0.00 0.00 43 1013.7
20260905162947 90 257 0.0 3.0 0.00 0.00 0.00 42 1013.8
20260905162835 89 257 1.0 3.0 0.00 0.00 0.00 43 1013.8
20260905162719 89 257 1.0 3.0 0.00 0.00 0.00 43 1013.8
20260905162621 89 257 1.0 3.0 0.00 0.00 0.00 43 1013.9
20260905162522 89 257 0.0 2.0 0.00 0.00 0.00 43 1013.9
20260905162433 89 257 0.0 3.0 0.00 0.00 0.00 43 1013.9
20260905162338 89 257 0.0 3.0 0.00 0.00 0.00 43 1013.9
20260905162240 89 257 0.0 3.0 0.00 0.00 0.00 43 1013.9
20260905162148 89 257 0.0 3.0 0.00 0.00 0.00 43 1014.0
20260905162033 89 257 0.0 3.0 0.00 0.00 0.00 43 1014.0
20260905161932 89 257 0.0 3.0 0.00 0.00 0.00 44 1014.0
20260905161840 89 257 0.0 3.0 0.00 0.00 0.00 43 1013.9
20260905161722 89 257 1.0 3.0 0.00 0.00 0.00 44 1014.0
20260905161624 89 257 0.0 3.0 0.00 0.00 0.00 44 1013.9
20260905161528 89 257 0.0 0.0 0.00 0.00 0.00 44 1013.9
20260905161441 89 257 0.0 0.0 0.00 0.00 0.00 44 1013.9
20260905161324 89 257 0.0 0.0 0.00 0.00 0.00 44 1013.9
20260905161227 89 257 0.0 0.0 0.00 0.00 0.00 44 1013.9
20260905161125 89 257 0.0 0.0 0.00 0.00 0.00 44 1013.8
20260905161035 89 257 0.0 0.0 0.00 0.00 0.00 44 1013.8
20260905160918 89 257 0.0 0.0 0.00 0.00 0.00 44 1013.8
20260905160824 89 257 0.0 0.0 0.00 0.00 0.00 44 1013.8
20260905160726 89 257 0.0 0.0 0.00 0.00 0.00 44 1013.8
20260905160635 89 257 0.0 0.0 0.00 0.00 0.00 45 1013.8
20260905160517 89 257 0.0 0.0 0.00 0.00 0.00 45 1013.8
20260905160439 89 257 0.0 0.0 0.00 0.00 0.00 45 1013.8
20260905160328 89 257 0.0 0.0 0.00 0.00 0.00 45 1013.8
20260905160257 89 257 0.0 0.0 0.00 0.00 0.00 45 1013.8
20260905160142 89 257 0.0 0.0 0.00 0.00 0.00 45 1013.7
20260905160034 89 257 0.0 0.0 0.00 0.00 0.00 44 1013.7
20260905155930 88 257 0.0 0.0 0.00 0.00 0.00 45 1013.7
20260905155830 88 257 0.0 0.0 0.00 0.00 0.00 45 1013.7
20260905155740 88 257 0.0 0.0 0.00 0.00 0.00 45 1013.7
20260905155620 88 257 0.0 0.0 0.00 0.00 0.00 45 1013.7
20260905155550 88 257 0.0 0.0 0.00 0.00 0.00 46 1013.7
20260905155415 88 257 0.0 0.0 0.00 0.00 0.00 46 1013.6
20260905155318 88 257 0.0 0.0 0.00 0.00 0.00 45 1013.7
20260905155229 88 257 0.0 0.0 0.00 0.00 0.00 46 1013.7
20260905155130 88 257 0.0 3.0 0.00 0.00 0.00 46 1013.7
20260905155033 88 257 0.0 3.0 0.00 0.00 0.00 46 1013.7
20260905154921 88 257 0.0 3.0 0.00 0.00 0.00 46 1013.7
20260905154826 88 257 0.0 3.0 0.00 0.00 0.00 46 1013.7
20260905154729 88 257 0.0 3.0 0.00 0.00 0.00 46 1013.7
20260905154638 87 257 0.0 3.0 0.00 0.00 0.00 46 1013.7
20260905154521 87 257 0.0 3.0 0.00 0.00 0.00 46 1013.5
20260905154443 87 257 0.0 3.0 0.00 0.00 0.00 46 1013.6
20260905154333 87 257 1.0 3.0 0.00 0.00 0.00 46 1013.6
20260905154219 87 257 1.0 3.0 0.00 0.00 0.00 46 1013.6
20260905154140 87 257 0.0 2.0 0.00 0.00 0.00 47 1013.5
20260905154047 87 257 0.0 1.0 0.00 0.00 0.00 47 1013.5
20260905153937 87 257 0.0 1.0 0.00 0.00 0.00 47 1013.5
20260905153837 87 257 0.0 2.0 0.00 0.00 0.00 47 1013.5
20260905153718 87 257 0.0 2.0 0.00 0.00 0.00 47 1013.5
20260905153620 87 257 0.0 2.0 0.00 0.00 0.00 47 1013.6
20260905153550 87 257 0.0 2.0 0.00 0.00 0.00 47 1013.6
20260905153436 87 257 0.0 2.0 0.00 0.00 0.00 46 1013.6
20260905153317 87 257 0.0 2.0 0.00 0.00 0.00 47 1013.5
20260905153226 87 257 0.0 2.0 0.00 0.00 0.00 47 1013.5
20260905153146 87 257 0.0 2.0 0.00 0.00 0.00 46 1013.5
20260905153055 87 257 0.0 2.0 0.00 0.00 0.00 46 1013.5
20260905152933 87 257 0.0 2.0 0.00 0.00 0.00 47 1013.5
20260905152842 87 257 0.0 2.0 0.00 0.00 0.00 47 1013.5
20260905152726 87 257 0.0 0.0 0.00 0.00 0.00 47 1013.5
20260905152656 87 257 0.0 0.0 0.00 0.00 0.00 47 1013.5
20260905152518 87 257 0.0 0.0 0.00 0.00 0.00 47 1013.6
20260905152419 86 257 0.0 0.0 0.00 0.00 0.00 47 1013.7
20260905152320 86 257 0.0 0.0 0.00 0.00 0.00 47 1013.7
20260905152228 86 257 0.0 0.0 0.00 0.00 0.00 48 1013.7
20260905152137 86 257 0.0 0.0 0.00 0.00 0.00 48 1013.6
20260905152021 86 257 0.0 0.0 0.00 0.00 0.00 47 1013.7
20260905151923 86 257 0.0 0.0 0.00 0.00 0.00 47 1013.6
20260905151825 86 257 0.0 0.0 0.00 0.00 0.00 49 1013.6
20260905151735 86 257 0.0 0.0 0.00 0.00 0.00 48 1013.6
20260905151618 86 257 0.0 1.0 0.00 0.00 0.00 48 1013.6
20260905151523 86 257 0.0 3.0 0.00 0.00 0.00 48 1013.6
20260905151424 86 257 0.0 3.0 0.00 0.00 0.00 48 1013.6
20260905151334 86 257 0.0 3.0 0.00 0.00 0.00 48 1013.6
20260905151237 86 257 0.0 3.0 0.00 0.00 0.00 48 1013.5
20260905151118 86 257 0.0 3.0 0.00 0.00 0.00 48 1013.5
20260905151029 86 257 0.0 3.0 0.00 0.00 0.00 48 1013.5
20260905150950 85 257 0.0 3.0 0.00 0.00 0.00 48 1013.5
20260905150841 85 257 0.0 3.0 0.00 0.00 0.00 48 1013.5
20260905150724 85 257 1.0 3.0 0.00 0.00 0.00 48 1013.3
20260905150625 85 257 0.0 2.0 0.00 0.00 0.00 48 1013.4
20260905150555 85 257 0.0 0.0 0.00 0.00 0.00 48 1013.4
20260905150415 85 257 0.0 0.0 0.00 0.00 0.00 49 1013.2
20260905150318 85 257 0.0 0.0 0.00 0.00 0.00 48 1013.4
20260905150224 85 257 0.0 0.0 0.00 0.00 0.00 48 1013.3
20260905150132 85 257 0.0 0.0 0.00 0.00 0.00 49 1013.3
20260905150052 85 257 0.0 0.0 0.00 0.00 0.00 49 1013.3
20260905145921 85 257 0.0 0.0 0.00 0.00 0.00 49 1013.3
20260905145821 85 257 0.0 0.0 0.00 0.00 0.00 48 1013.3
20260905145732 85 257 0.0 0.0 0.00 0.00 0.00 49 1013.3
20260905145653 85 257 0.0 0.0 0.00 0.00 0.00 49 1013.3
20260905145541 85 257 0.0 0.0 0.00 0.00 0.00 49 1013.4
20260905145426 84 257 0.0 0.0 0.00 0.00 0.00 49 1013.4
20260905145336 84 257 0.0 0.0 0.00 0.00 0.00 49 1013.4
20260905145216 84 257 0.0 0.0 0.00 0.00 0.00 49 1013.4
20260905145118 84 257 0.0 0.0 0.00 0.00 0.00 50 1013.4
20260905145020 84 257 0.0 0.0 0.00 0.00 0.00 50 1013.4
20260905144931 84 257 0.0 0.0 0.00 0.00 0.00 50 1013.4
20260905144837 84 257 0.0 0.0 0.00 0.00 0.00 51 1013.4
20260905144718 84 257 0.0 0.0 0.00 0.00 0.00 51 1013.4
20260905144628 84 257 0.0 0.0 0.00 0.00 0.00 51 1013.4
20260905144529 84 257 0.0 0.0 0.00 0.00 0.00 52 1013.4
20260905144432 84 257 0.0 0.0 0.00 0.00 0.00 52 1013.4
20260905144341 84 257 0.0 0.0 0.00 0.00 0.00 52 1013.4
20260905144228 83 257 0.0 0.0 0.00 0.00 0.00 51 1013.4
20260905144130 83 257 0.0 0.0 0.00 0.00 0.00 51 1013.5
20260905144033 83 257 0.0 0.0 0.00 0.00 0.00 51 1013.4
20260905143916 83 257 0.0 2.0 0.00 0.00 0.00 51 1013.4
20260905143845 83 257 0.0 3.0 0.00 0.00 0.00 51 1013.3
20260905143724 83 257 0.0 3.0 0.00 0.00 0.00 51 1013.3
20260905143638 83 257 0.0 3.0 0.00 0.00 0.00 51 1013.3
20260905143519 83 257 0.0 3.0 0.00 0.00 0.00 51 1013.3
20260905143428 83 257 0.0 3.0 0.00 0.00 0.00 51 1013.3
20260905143330 83 257 0.0 3.0 0.00 0.00 0.00 50 1013.4
20260905143231 83 257 0.0 3.0 0.00 0.00 0.00 50 1013.4
20260905143141 83 257 1.0 3.0 0.00 0.00 0.00 50 1013.4
20260905143021 83 257 1.0 3.0 0.00 0.00 0.00 50 1013.4
20260905142956 83 257 0.0 2.0 0.00 0.00 0.00 50 1013.4
20260905142736 83 257 0.0 2.0 0.00 0.00 0.00 50 1013.3
20260905142619 83 257 0.0 5.0 0.00 0.00 0.00 50 1013.4
20260905142542 83 257 0.0 5.0 0.00 0.00 0.00 50 1013.4
20260905142430 83 257 0.0 5.0 0.00 0.00 0.00 50 1013.4